GFSGBSN_850_dewp_090.txt.gz
Dewpoint
2 2 2 2 2 2 1 2 2 1 2 2 3 5 6 7 8 8 7 7 6 2 2 2 1 1 3 3 2 0 -1 -2 1 -0 0 -0 0 -0 1 -0 -0 1 0 -1 -3 -5 -3
2 2 1 2 1 1 1 0 1 -0 -0 2 2 1 5 6 7 7 7 7 6 4 2 2 2 2 4 3 0 -0 -2 -2 -1 0 1 1 -0 1 2 1 3 0 0 -0 -3 -2 -1
2 2 2 1 2 2 2 1 -1 -0 0 0 2 1 -3 4 4 5 6 7 6 -0 -5 1 2 2 3 2 -0 0 -0 -0 0 1 1 1 0 2 1 1 2 3 4 1 -1 -2 1
1 1 1 1 2 0 0 0 -0 -1 0 0 2 2 1 0 3 4 7 7 5 -4 -5 1 2 2 2 -0 -0 0 1 1 0 1 0 2 2 2 2 2 2 4 2 3 1 -0 -0
1 1 1 1 1 1 1 0 1 -1 0 0 1 0 0 2 3 5 6 7 3 -1 1 2 1 2 2 1 -1 1 -0 2 2 2 1 2 3 2 3 3 4 5 3 3 2 2 2
1 1 1 0 0 0 -0 1 -1 -0 -1 -2 -2 -1 -2 1 3 6 6 6 0 -0 2 2 3 2 2 1 1 -1 -1 0 2 2 2 3 4 4 4 5 4 4 2 3 2 3 4
1 1 1 1 1 0 0 0 0 0 -0 -1 -3 -1 -4 -0 4 5 6 3 2 3 3 1 1 2 -0 0 1 -1 -1 1 2 2 2 3 4 4 5 4 2 4 1 7 3 4 5
1 1 1 1 -0 0 0 0 -0 -1 -0 0 -2 -6 -7 -2 1 4 4 2 0 -1 0 0 2 1 0 0 1 -0 -0 2 3 2 1 3 4 1 3 4 4 4 3 5 5 5 4
1 1 1 0 0 -0 0 -1 -1 -1 -0 -1 -2 -5 -9 -7 -3 3 3 3 -1 -0 -1 -1 1 1 0 -0 1 2 2 2 1 2 3 5 2 4 5 5 5 5 2 5 7 6 5
0 1 0 0 -1 -1 -2 -1 -2 -1 -2 -1 -1 -2 -2 -8 -3 2 3 2 1 -1 2 1 2 2 1 2 2 2 2 2 2 3 2 5 1 3 5 6 5 5 3 4 5 6 7
1 0 -0 0 -1 -1 -2 -1 -2 -3 -2 -2 -1 -1 -1 -2 0 1 2 0 1 -1 6 1 2 2 2 2 2 3 2 3 3 2 3 3 3 3 4 3 4 5 4 5 5 6 5
0 0 -0 -1 -1 -1 -2 -1 -3 -2 -1 -1 -3 -5 -3 -4 -1 -0 2 2 0 4 4 3 3 3 3 3 2 5 5 4 4 5 3 4 5 5 5 4 4 4 4 4 5 5 8
2 0 0 -1 -1 -2 -1 -1 -3 -1 -1 -3 -4 -3 -3 -1 0 0 2 1 4 5 -1 4 3 2 2 2 2 4 4 6 6 7 7 5 5 5 5 6 4 4 4 7 7 8 8
2 1 0 -1 -1 -2 -2 -4 -2 -1 -2 -3 -3 -2 -0 -0 -0 0 1 2 5 0 -1 0 2 2 2 1 1 1 3 5 3 3 6 8 8 6 4 5 6 5 5 6 6 7 7
1 0 -1 -1 -1 -1 -3 -2 -1 -2 -3 -3 -2 -0 -1 -0 -1 1 1 4 4 -0 -0 2 1 1 2 2 1 1 3 3 2 3 5 6 7 4 4 4 4 5 4 1 3 2 4
2 -0 -3 -2 -2 -2 -3 -2 -2 -3 -3 -2 -1 -0 -1 0 -1 1 2 4 1 -1 0 1 0 -1 1 1 1 2 3 2 3 1 1 3 7 4 4 3 3 3 1 4 3 4 5
1 -0 -2 -2 -2 -1 -3 -2 -2 -3 -2 -1 -1 -1 1 1 1 1 3 4 1 0 1 -0 -0 -0 -1 1 0 1 2 2 2 1 -1 0 3 5 4 5 5 4 2 1 1 1 2
0 -1 -3 -2 -2 -3 -3 -2 -3 -3 -1 -1 -0 1 0 2 1 1 2 2 1 2 1 1 -1 -1 -1 0 0 1 2 2 2 0 2 1 2 6 4 2 1 2 3 0 2 2 0
0 -2 -2 -2 -3 -3 -2 -2 -3 -2 -1 -0 -1 -1 1 1 3 4 2 2 2 2 2 1 2 0 -1 -1 1 2 3 2 1 2 1 -0 2 6 4 1 1 3 1 0 -1 0 2
-1 -3 -2 -2 -3 -3 -3 -3 -4 -1 -1 -1 -1 1 0 1 2 1 3 3 3 2 2 0 1 -1 -1 1 0 3 3 2 2 2 1 -2 0 2 2 3 2 3 3 1 1 6 -1
-1 -3 -2 -2 -3 -4 -4 -5 -3 -2 -1 -1 -1 1 1 3 3 3 2 2 3 3 2 -1 1 -0 -1 1 2 3 3 2 1 1 1 -0 4 2 1 1 2 2 3 2 3 -0 1
-4 -3 -2 -2 -3 -2 -3 -3 -2 -2 -1 -1 -0 1 1 1 2 3 2 3 4 1 1 1 2 0 -1 0 0 2 2 1 2 1 1 0 4 1 3 -0 -0 1 1 2 2 0 1
-5 -3 -3 -3 -2 -3 -2 -3 -1 -2 -1 -0 0 1 1 0 2 3 3 2 0 1 0 -0 1 0 1 0 -1 0 0 1 1 1 1 1 3 4 4 0 -0 1 -0 1 2 1 1
-4 -3 -3 -2 -2 -2 -2 -0 -1 -2 -0 -0 0 0 1 1 1 1 1 0 -0 1 1 1 0 0 0 1 1 0 1 1 0 0 -1 1 1 2 4 1 4 -1 -4 -2 -0 -1 0
-3 -3 -4 -3 -2 -2 -1 -1 -0 0 0 -1 1 1 2 2 1 1 -0 -0 -0 1 2 2 2 1 1 1 1 1 1 -0 1 2 0 -1 1 3 4 2 -1 -1 -2 -2 -1 -3 -2
-3 -3 -3 -3 -2 -1 1 1 0 1 1 -0 0 1 2 -0 -1 -2 -1 -1 1 2 2 2 1 0 0 -0 1 3 2 2 2 2 1 -0 -1 1 2 3 1 -2 -4 -5 -4 -2 -2
-4 -2 -3 -3 -2 0 2 1 0 -0 1 1 1 2 -1 -2 -2 -1 0 0 1 2 2 1 1 1 1 2 2 1 2 0 2 2 2 3 2 2 1 2 -0 -3 -3 -4 -1 -3 -0
-5 -3 -3 -6 -3 2 1 1 -1 -1 -0 1 1 -0 -3 -2 -2 -2 -1 0 0 1 2 1 2 2 3 5 2 0 -0 0 1 0 2 2 1 1 -0 2 2 -3 -2 -2 -4 -2 0
-6 -6 -7 -7 0 2 1 1 -0 -0 1 0 -3 -3 -2 -2 -2 -2 -1 -1 -1 -0 1 0 1 1 1 3 0 -1 -0 -0 -1 0 -1 2 -1 -1 -1 -2 -4 -2 -2 -3 -3 -1 -0

GFSGBSN_850_dewp_093.txt.gz
Dewpoint
2 2 2 2 2 2 2 2 1 -0 1 2 1 3 1 2 5 6 7 8 7 7 6 3 1 3 3 3 2 -0 -1 -0 2 3 -0 -1 -1 -2 -2 -4 -4 -1 -1 -2 -3 -2 -2
2 2 2 2 2 2 1 1 1 1 1 1 2 3 2 1 1 5 6 7 7 7 6 2 1 2 4 2 1 1 -1 -0 0 1 -0 -0 -0 -3 -2 -1 -0 -2 0 1 -0 -1 -2
2 2 2 1 1 2 2 1 1 1 1 1 2 2 2 2 1 -1 3 6 7 7 5 -1 2 2 4 1 1 1 0 -0 0 1 0 -0 0 -1 -3 -2 -3 -0 3 2 2 -0 -1
2 2 2 2 1 1 1 0 -1 -1 -1 -1 -0 -2 -0 0 1 1 -1 4 6 6 2 -0 2 3 3 2 2 2 1 1 1 1 1 1 1 0 -1 -2 0 1 1 5 -0 -1 -2
2 2 2 2 1 1 1 1 0 -0 -1 -0 -2 -2 -1 -0 -2 2 1 4 6 5 2 2 2 4 1 2 1 1 1 1 1 2 2 1 2 1 2 3 4 4 5 3 -0 -0 -1
2 2 1 1 1 -0 1 0 -0 -1 -0 -4 -2 -3 -4 -1 -2 4 5 5 4 3 2 3 3 3 1 1 2 2 1 1 1 1 1 1 2 3 3 4 4 5 5 2 1 1 3
-1 1 1 1 1 1 0 -0 -2 -0 -1 -1 -1 -1 -8 -1 -0 1 4 4 3 3 3 3 2 1 1 2 1 1 1 2 2 1 1 1 5 5 3 2 3 3 4 4 1 1 3
0 1 1 1 1 1 -0 0 -0 -1 -2 -2 -2 -2 -11 -4 -0 -2 2 3 3 1 2 3 1 2 2 2 1 1 2 2 2 3 1 3 4 -1 3 4 5 4 3 3 6 4 4
1 1 1 1 -1 1 -0 -1 -2 -0 -3 -2 -2 -1 -2 -16 -8 -0 0 2 2 1 1 -1 2 1 1 2 0 1 2 1 1 1 1 3 2 2 3 5 5 4 3 6 6 5 4
2 2 2 1 1 0 -1 -1 -2 -2 -3 -2 -3 -2 -2 -6 -3 0 1 2 3 2 4 1 1 1 2 2 1 3 2 1 1 2 1 2 -0 2 5 6 5 5 1 5 5 7 7
3 3 2 1 0 -1 -1 -1 -1 -3 -2 -2 -2 -3 -4 -5 -1 1 2 2 2 -0 6 1 1 3 3 2 3 3 3 2 3 2 2 4 3 2 3 5 3 5 1 6 6 6 7
4 4 2 1 -2 -1 -1 -2 -3 -1 -2 -2 -3 -3 -4 -2 0 -1 1 2 1 4 6 3 2 3 3 2 2 4 4 3 4 4 4 4 4 4 3 3 3 3 5 5 6 5 9
3 4 2 -0 -2 -2 -1 -2 -1 -1 -2 -3 -3 -3 -2 -1 -1 0 1 1 4 5 -0 3 3 2 1 3 3 4 5 5 6 7 6 5 5 4 5 6 5 6 6 8 10 9 8
4 2 0 -4 -3 -1 -2 -2 -1 -1 -2 -3 -2 -1 -1 -0 -0 -1 0 1 5 2 1 -0 0 1 2 1 1 2 2 6 4 4 7 8 8 6 5 6 7 7 4 8 9 8 5
3 0 -2 -3 -1 -1 -1 -1 -1 -1 -2 -1 -1 -0 -0 -0 0 0 0 4 6 1 -0 1 1 1 2 1 1 2 5 6 5 4 7 8 7 5 4 3 4 3 4 1 4 2 3
1 0 -3 -1 -1 -2 -2 -1 -1 -2 -1 -0 -0 -0 -0 -1 -0 0 1 5 2 1 -0 -1 0 -1 0 1 2 3 4 2 2 0 0 3 7 5 3 3 3 3 1 5 4 8 5
1 -0 -2 -2 -2 -3 -3 -2 -3 -1 -1 -1 -0 -0 0 -0 -0 1 3 4 3 2 0 0 -1 -1 -2 -0 1 1 2 2 1 1 -1 1 3 5 4 4 4 3 2 0 0 1 4
-0 -3 -2 -2 -3 -3 -3 -3 -4 -1 -1 -1 -0 1 1 1 1 1 4 3 3 2 1 1 -1 -2 -2 -1 -0 1 3 2 1 0 1 0 3 6 4 1 0 2 0 -1 3 1 1
-1 -10 -2 -2 -3 -3 -4 -4 -4 -1 -1 -1 -0 -0 1 2 3 4 1 2 3 2 2 2 0 -1 -2 -1 0 1 2 2 1 1 1 -1 2 6 3 2 1 2 1 -0 -1 1 2
-4 -15 -2 -2 -3 -3 -3 -3 -3 -2 -2 -1 0 2 1 2 2 1 2 2 4 2 2 1 0 -3 -2 -1 -1 2 3 2 2 1 1 -1 1 4 5 4 3 3 1 -1 2 6 0
-8 -10 -3 -2 -3 -3 -2 -3 -2 -3 -2 1 1 1 1 4 2 1 1 2 2 4 3 0 1 -2 -2 -1 -1 2 2 1 0 0 -0 -0 3 3 1 0 1 2 1 -0 2 -2 1
-16 -5 -3 -2 -3 -2 -2 -1 -1 -3 -2 -0 1 1 1 1 -0 1 3 3 4 3 1 1 1 -1 -2 -1 -0 -0 0 -1 0 -0 0 -0 4 2 2 0 -0 1 1 1 1 -1 -1
-24 -5 -3 -3 -3 -2 -1 -0 -1 -2 -2 0 0 1 2 1 1 2 1 2 3 1 0 0 1 -1 0 1 -1 -1 -1 -1 -0 0 0 1 2 4 4 0 -0 1 -1 1 1 1 -0
-25 -5 -3 -4 -2 -2 0 0 -0 -0 -2 -2 1 1 2 1 1 1 0 0 -0 1 1 1 1 0 1 1 -0 -1 -1 -1 -1 -1 -2 0 1 3 5 3 6 -0 -3 -2 -1 -1 -0
-18 -4 -3 -3 -2 -0 1 1 -0 1 0 -2 -1 1 2 1 1 1 -1 -0 -1 1 2 2 2 1 1 1 -0 0 -0 -1 -0 -0 -1 -1 -0 3 5 1 -2 -2 -2 -2 -1 -2 -3
-17 -7 -6 -6 -3 1 1 1 0 -0 -0 -0 -1 0 2 0 -1 -2 -1 -1 -0 2 1 1 1 1 1 -0 -0 1 1 1 1 1 -1 -2 -2 1 1 3 -1 -2 -3 -5 -4 -2 -3
-17 -10 -7 -6 -1 2 2 1 -0 -1 -1 -1 -0 1 0 -1 -2 -2 -1 0 2 2 2 1 2 1 2 1 1 -0 1 0 1 1 1 1 1 2 1 2 -1 -3 -3 -4 -2 0 -1
-12 -12 -13 -5 2 2 2 0 -1 -0 -1 0 0 0 -2 -2 -1 -1 -1 0 1 2 1 1 2 2 3 3 1 -0 -2 -0 -0 -0 1 1 1 1 -0 1 2 -3 -3 -2 -3 -2 -1
-11 -9 -14 -2 2 1 1 -0 -1 0 1 -1 -3 -3 -2 -1 -1 -1 -0 0 -0 -0 1 2 1 2 2 3 0 -1 -1 -1 -1 -1 -1 1 -1 -1 -1 -1 -4 -3 -2 -2 -2 -2 -0

GFSGBSN_850_dewp_096.txt.gz
Dewpoint
2 2 2 2 2 2 2 2 2 1 1 1 2 2 2 2 2 2 3 5 7 7 7 6 4 1 2 3 2 1 -3 -3 2 3 1 -1 -1 -2 -1 -3 -4 -3 -3 -3 -3 -3 -2
2 2 2 2 2 2 1 2 1 1 1 1 1 1 2 2 2 2 -2 3 5 6 7 6 4 1 3 2 1 1 0 0 1 2 1 -1 -1 -1 -2 -3 -1 -2 -2 -2 -2 -1 -0
2 2 2 2 2 2 2 2 2 1 1 1 0 1 1 1 0 1 -0 -5 1 6 6 5 3 -0 4 2 1 1 0 -0 0 0 0 -1 -1 -0 -2 -2 -3 -1 2 1 0 -0 1
2 2 2 2 2 1 1 1 0 -1 1 0 1 -0 -0 0 0 -2 4 2 -2 6 5 4 1 0 3 2 1 1 1 1 1 1 0 -0 -0 0 -1 -1 -1 -0 2 3 -1 -0 -0
2 2 2 2 2 1 1 1 1 0 -0 0 -2 -3 -0 -1 -1 -7 1 3 1 5 4 1 2 2 3 2 1 2 1 1 0 1 1 1 1 1 -0 2 3 3 3 3 2 0 -0
2 3 2 2 1 1 0 1 -0 0 0 -1 -4 -3 -3 0 -1 -9 -3 4 5 5 3 2 4 4 2 1 1 2 2 1 1 1 2 2 1 1 2 3 4 2 5 4 4 -0 1
3 3 3 2 2 1 0 1 0 -1 -1 -1 -3 -5 -5 -3 -0 -10 -6 1 3 3 4 4 3 1 1 2 2 2 1 2 1 0 1 0 2 3 2 2 2 2 4 4 2 1 4
4 4 4 3 2 2 1 0 -0 -1 -2 -2 -2 -3 -5 -4 -1 -5 0 -1 1 2 3 3 4 1 1 1 2 1 2 1 1 1 -0 3 5 1 1 3 5 5 5 3 3 4 5
3 4 5 4 3 1 -1 -2 -1 -2 -3 -3 -4 -4 -3 -5 -6 0 -1 0 2 2 2 1 3 2 2 1 0 1 1 2 2 2 1 3 1 2 3 4 5 5 4 4 6 5 4
4 4 4 4 1 0 -2 -1 -1 -2 -3 -4 -4 -3 -3 -5 -4 -2 -1 1 1 2 4 2 1 1 1 1 1 2 2 1 -0 1 0 2 0 1 5 5 5 6 2 2 5 6 8
4 4 3 0 -0 -3 -4 -1 -1 -2 -3 -2 -2 -3 -3 -4 -4 -1 -1 -1 1 1 6 2 1 1 1 2 2 3 2 2 2 3 4 4 4 5 4 3 4 4 5 5 5 7 7
2 1 1 -2 -6 -3 -1 -2 -2 -2 -2 -2 -3 -3 -3 -2 -1 -2 -0 -0 2 4 6 5 2 3 2 1 2 3 4 3 4 4 4 4 3 4 3 3 3 3 4 5 5 7 9
2 1 -4 -4 -2 -0 -1 -0 -1 -2 -2 -2 -2 -2 -1 -1 -1 -0 0 1 3 4 3 3 3 2 1 2 2 3 4 5 5 6 6 5 4 3 3 6 4 5 7 9 9 9 9
1 -3 -4 -2 -1 -1 -1 -1 -2 -2 -2 -1 -0 -0 -0 0 0 -1 -2 2 4 5 4 0 1 1 5 2 3 2 5 6 4 4 6 7 7 5 4 6 7 6 6 8 9 10 9
-0 -3 -2 -2 -1 -1 -1 -2 -1 -1 -0 0 0 -0 -0 -1 -1 -2 0 3 4 4 2 1 1 3 4 1 1 3 5 5 5 3 7 8 7 5 5 3 4 6 6 1 5 5 7
-1 -15 -2 -0 -1 -3 -4 -1 -0 -0 -0 -0 -0 -1 -1 -0 -1 -0 2 4 4 3 1 -1 1 1 2 1 5 5 6 2 5 2 2 4 8 4 3 4 4 4 2 5 6 9 9
-4 -18 -2 -1 -4 -6 -5 -1 -0 -0 -1 -2 -1 -0 -0 -2 0 1 3 4 4 2 1 0 -0 -1 -1 1 4 4 3 2 1 1 -0 1 5 6 4 4 4 4 2 1 1 3 7
-6 -16 -4 -4 -3 -4 -4 -4 -3 -0 -1 -2 -0 0 -0 1 1 1 4 3 3 2 1 1 -0 -1 -1 -1 1 2 4 3 1 1 1 1 3 6 4 1 0 2 1 1 4 4 4
-9 -13 -4 -4 -5 -4 -2 -3 -3 -2 -1 -0 1 1 2 2 3 3 0 1 2 2 2 2 -0 -2 -3 -1 2 1 3 2 1 1 2 1 3 6 4 2 1 2 -0 0 -0 4 2
-13 -10 -7 -3 -6 -3 -1 -1 -2 -3 -1 0 1 2 1 2 2 1 1 1 3 2 2 1 -1 -3 -3 -1 -0 2 3 2 1 1 0 1 2 4 5 4 3 3 1 -0 3 3 2
-19 -8 -12 -10 -6 -2 -1 -0 -2 -3 -1 1 1 1 1 2 2 1 1 2 2 3 2 1 -1 -3 -2 -1 1 2 1 1 0 -0 0 1 3 2 1 0 1 1 1 0 0 -1 3
-20 -9 -10 -11 -6 -3 -0 0 -1 -3 -1 -0 0 2 1 1 1 0 2 2 2 1 1 2 -0 -1 -0 1 -0 1 -0 -0 1 -1 -0 0 3 3 1 0 0 1 1 1 2 -1 -0
-22 -10 -11 -9 -5 -2 0 0 -0 -2 -2 0 0 0 2 1 1 2 2 2 1 1 -0 0 1 0 2 2 -1 -1 -1 -1 -1 0 0 1 3 4 3 1 0 2 -0 1 1 1 1
-26 -11 -15 -7 -2 -1 0 1 0 0 -2 1 0 1 2 1 0 0 -0 0 -0 1 2 2 1 1 1 1 -0 -1 -2 -1 -1 -1 -2 0 2 3 4 3 3 0 -3 -3 -1 -0 -1
-27 -11 -16 -9 -3 -0 1 1 1 -0 0 -1 -1 1 2 0 -2 -0 -1 -0 -1 1 2 2 1 1 0 1 1 1 0 -0 -0 -1 -1 -1 1 3 4 2 -1 -1 -2 -2 -1 -1 -2
-29 -10 -15 -9 -0 1 1 -0 1 -0 -1 -1 1 0 1 1 -1 -2 -1 -0 -1 1 2 1 1 1 2 2 0 2 3 1 1 0 -2 -2 -2 1 2 3 1 -1 -3 -5 -4 1 -2
-30 -10 -17 -5 1 1 0 -0 -2 -1 -1 1 -1 0 -0 -0 -2 -2 -1 1 1 2 2 1 2 2 2 3 1 1 2 -0 1 0 1 1 1 2 2 2 0 -2 -3 -4 -1 1 -1
-32 -10 -15 -1 1 1 0 -1 -1 -0 -0 0 1 0 -1 -1 -1 -1 -1 -0 1 2 2 1 2 2 3 3 2 0 -0 0 0 -0 1 1 1 1 0 1 1 -3 -3 -1 -2 -1 -1
-32 -11 -14 1 0 1 -0 -1 0 0 -0 -2 -2 -2 -3 -1 -1 -1 -0 0 0 0 0 2 1 2 2 3 1 -0 -0 -1 -1 -0 -0 1 -0 0 -1 1 -3 -3 -2 -3 -2 -1 -0

GFSGBSN_850_dewp_099.txt.gz
Dewpoint
2 2 2 1 2 1 1 2 2 2 2 2 1 1 1 1 2 1 1 -4 -2 5 6 7 7 3 1 3 2 0 -5 -5 -0 3 4 2 -1 -1 0 -2 -2 -1 -2 -3 -3 -3 -2
2 1 2 1 1 2 2 2 2 0 -0 1 1 1 1 1 1 1 -0 -0 3 0 6 6 6 3 1 3 1 2 -1 -1 -1 3 2 -0 -1 -1 -1 -2 -2 -2 -2 -2 -2 -2 -2
3 2 1 2 2 2 1 1 1 1 -0 1 1 1 -0 -0 0 -0 0 -1 3 -6 5 6 5 3 2 1 1 1 0 -2 1 2 1 -1 -1 -1 -0 -1 -2 -2 -0 -1 -1 -2 -0
4 4 4 4 3 3 2 2 2 1 0 1 0 0 -0 -1 0 -1 -7 -3 3 -2 2 6 4 3 3 1 1 1 -0 -0 0 0 0 0 -1 -0 -1 -1 -0 1 1 2 -0 -0 0
4 4 5 5 4 4 3 2 2 1 -1 -1 -1 -5 -3 0 -1 -3 -17 -5 3 2 5 5 3 3 3 2 1 1 2 0 1 0 0 0 1 1 0 2 1 2 2 3 1 -1 1
4 4 4 4 3 4 3 2 1 1 -1 -1 -2 -3 -4 -0 -2 -6 -11 -6 4 4 4 3 3 4 2 2 1 2 1 1 0 -0 -0 2 1 2 0 2 2 1 2 3 3 3 2
4 4 4 4 3 4 2 0 0 -1 -2 -3 -3 -2 -5 -0 -2 -8 -4 -7 1 3 3 3 3 2 2 2 1 1 1 1 0 0 1 0 1 2 0 0 0 2 2 3 2 1 2
4 3 -0 2 2 0 0 0 -0 -0 -1 -2 -4 -5 -4 -2 -4 -3 -1 -0 -0 1 2 3 3 3 2 1 2 1 -0 1 -0 2 1 3 3 0 -0 1 2 4 5 4 3 1 4
2 -4 0 -0 -0 -2 -1 -0 -1 -1 -3 -3 -3 -3 -3 -3 -3 -3 -2 -0 0 1 2 3 4 2 2 1 1 1 1 2 2 2 2 3 1 1 2 3 6 4 5 5 4 2 4
-0 -6 -1 -2 -1 -2 -2 -2 -2 -2 -2 -2 -3 -3 -4 -3 -2 -5 0 -1 1 1 4 5 4 3 2 1 1 1 0 2 1 1 1 2 -0 1 1 3 4 6 2 5 5 6 8
-1 -4 -4 -1 -1 -1 -1 -1 -2 -3 -3 -3 -3 -3 -3 -2 -3 -1 -0 -1 1 2 5 3 2 2 1 2 2 2 1 2 2 1 3 4 4 4 5 4 4 5 4 5 6 8 6
-1 -0 -1 -1 -1 -1 -1 -2 -2 -2 -1 -2 -2 -2 -2 -2 -2 -1 -0 0 1 3 5 5 2 2 2 1 3 3 3 2 3 4 3 4 3 3 4 3 3 3 4 5 6 7 8
-1 -1 -1 -1 0 -1 -1 -1 -0 0 1 1 -0 -1 -2 -2 -2 -2 -2 1 2 4 4 3 4 1 1 2 4 3 4 4 5 5 6 5 4 3 3 5 4 5 6 8 8 8 9
-3 -6 -1 -1 -0 -1 -0 -0 -0 1 1 -1 -0 -0 -3 -3 -3 -4 -2 1 5 6 5 1 2 2 5 2 3 3 5 6 4 4 5 7 6 6 5 6 6 6 6 8 8 9 9
-8 -12 -1 -0 -0 -0 1 1 1 -1 -1 -2 -1 -1 -2 -2 -2 -4 -1 3 4 5 3 2 2 6 5 3 3 4 5 5 5 3 6 7 7 5 5 5 4 6 8 5 8 8 9
-10 -12 -2 -0 -1 -1 0 1 1 -0 -1 -1 -1 -1 0 -2 -2 -1 -0 4 4 3 2 0 2 2 3 3 6 5 6 5 5 3 3 5 8 5 4 4 3 5 3 6 6 8 10
-12 -12 -5 -1 -7 -4 -0 -0 -2 -2 -3 -3 -2 -2 -1 0 -0 1 3 3 3 2 2 1 2 1 1 5 6 6 4 2 1 2 2 4 6 4 4 4 4 4 3 2 2 4 7
-14 -12 -15 -3 -8 -5 -2 -1 -3 -2 -5 -3 -2 -2 1 1 0 2 2 2 2 2 2 2 -0 -1 -1 -0 2 3 4 3 1 1 3 1 4 6 4 1 1 1 2 1 4 3 4
-17 -12 -16 -9 -8 -5 -3 -2 -3 -2 -1 -0 0 0 1 2 3 1 1 1 2 2 2 2 -0 -2 -3 -2 3 2 3 2 1 1 1 -0 3 4 3 2 0 2 1 0 0 2 3
-18 -13 -15 -9 -7 -5 -3 -3 -5 -3 -1 1 0 0 0 1 1 2 1 1 2 1 3 2 1 -3 -3 2 1 3 3 1 1 0 1 1 2 3 3 2 2 2 2 1 1 3 4
-17 -13 -15 -10 -5 -4 -1 -2 -4 -5 -2 0 0 0 1 2 1 1 1 1 3 3 1 1 -1 0 -1 2 1 2 1 1 0 -1 -1 0 2 1 0 0 1 1 2 2 1 1 2
-9 -14 -16 -11 -2 -2 -1 -1 -2 -5 -3 -0 0 0 -1 1 1 1 1 2 2 1 1 2 3 2 1 2 1 2 1 1 1 -0 -0 0 1 2 1 0 -0 1 0 1 2 1 1
-7 -19 -13 -17 -3 -2 -1 -1 -0 -3 -4 -0 0 1 2 1 0 1 1 1 2 2 1 1 1 1 2 2 1 0 -1 -1 -1 -0 0 1 2 2 3 0 0 0 -0 0 1 1 0
-4 -22 -11 -19 -5 -1 0 0 -0 -1 -2 -1 0 1 2 -0 -1 0 -0 -0 1 1 2 2 1 1 1 0 -0 -1 -2 -1 -1 -1 -2 0 1 2 2 1 1 -0 -3 -3 -1 -1 -0
-3 -25 -11 -20 -3 0 0 0 -0 -1 -2 -1 0 1 1 -1 -2 -0 -1 -1 -1 1 2 2 1 1 2 1 1 1 0 -1 -1 -1 -1 -2 1 2 2 0 -1 -1 -2 -2 -1 -1 -2
-2 -27 -11 -19 -2 -0 0 -0 -1 -2 -2 -2 -1 0 -0 1 -2 -2 -1 1 0 2 1 2 0 1 2 2 0 1 2 1 1 -1 -2 -2 -2 1 1 2 0 -2 -3 -5 -4 0 -2
-1 -28 -11 -16 -1 -0 -1 -1 -2 -2 -2 -1 -1 -0 -1 -0 -2 -1 -1 0 1 2 1 1 1 0 1 2 1 0 0 -1 1 0 1 1 0 1 1 1 0 -3 -3 -4 -1 -2 -1
-2 -28 -11 -14 -2 -1 -1 -1 -1 -0 1 -1 -2 -2 -1 -1 -1 -2 -1 -0 1 1 1 1 1 1 2 2 2 0 -0 -0 -1 -1 0 1 0 1 0 1 0 -3 -3 -1 -3 -1 -1
-1 -26 -12 -14 -2 -1 -1 -0 -0 -1 -2 -1 -1 -2 -2 -1 -1 -1 -1 -1 -0 0 -0 1 1 2 1 0 0 -0 -0 -1 -1 -0 -1 -1 -0 -0 -1 -1 -3 -3 -3 -3 -2 -1 -1

GFSGBSN_850_dewp_102.txt.gz
Dewpoint
4 4 4 4 4 3 2 1 2 0 1 -1 -1 1 2 2 1 1 1 1 1 2 4 6 7 6 3 3 2 2 4 5 -1 -3 2 3 1 -1 -0 -1 -2 -1 -1 -2 -2 -2 -1
4 4 4 5 5 5 4 4 2 2 1 1 0 0 1 -0 1 1 1 -4 0 1 0 5 6 5 3 3 -0 2 0 0 -1 1 3 2 -1 -1 -1 -2 -2 -2 -2 -2 -2 -2 -2
3 3 4 4 5 5 3 5 3 3 3 2 2 0 -0 -0 -1 -2 -4 -14 -7 1 -1 4 6 5 3 3 2 2 -2 -0 -0 1 2 1 -1 -1 -1 -1 -1 -1 0 -0 -2 -3 -2
4 5 4 1 0 0 2 3 4 3 2 1 1 -1 -3 -1 -0 -3 -6 -18 -3 2 -1 4 5 4 3 3 4 3 -0 0 2 1 1 0 -1 -1 -0 -1 -1 1 1 2 -1 -1 -1
4 2 -3 1 -0 -0 1 1 2 1 1 1 0 -2 -1 -2 -2 -4 -9 -15 3 2 0 6 5 3 3 3 2 1 -1 -0 -0 0 0 0 -0 -1 0 1 1 1 2 2 1 -1 -0
3 0 -3 1 1 -1 -0 0 0 0 0 -1 -1 -3 -3 -3 -3 -6 -10 -8 1 4 5 4 4 2 3 3 2 0 1 0 1 -0 -1 1 0 2 1 1 1 1 2 2 3 1 2
2 -7 -0 -1 -1 -1 -0 -2 -1 -1 -1 -2 -2 -3 -5 -4 -5 -5 -6 -4 2 3 4 2 3 3 3 2 2 2 1 1 -0 -0 -1 0 2 1 -0 -0 -1 0 2 3 2 1 2
1 -2 -0 1 1 -0 -1 -2 -1 -2 -3 -3 -3 -3 -3 -5 -6 -2 -3 -1 0 0 2 4 3 3 2 1 2 1 1 0 -0 1 -0 2 1 -1 -1 -1 -0 1 3 4 2 2 3
0 0 0 1 1 -0 -0 -1 -2 -3 -3 -3 -3 -3 -4 -5 -3 -2 -2 -0 -0 0 2 3 4 3 2 1 2 1 -0 1 1 1 1 2 0 0 0 1 2 3 4 3 4 4 4
-0 -1 -1 1 1 -2 -1 -1 -2 -3 -3 -3 -4 -4 -4 -4 -3 0 -1 -1 -0 1 3 3 3 3 1 0 2 0 -0 2 2 2 2 3 1 2 1 2 3 5 2 3 5 7 7
-1 -1 0 0 -0 -0 -1 -0 0 1 0 -2 -3 -3 -3 -3 -3 -2 -0 -0 1 2 4 3 3 3 1 2 2 2 1 2 2 0 2 1 4 4 5 4 2 5 3 5 4 6 7
-10 -4 -1 0 0 -1 -0 1 0 -1 -0 -1 -2 -2 -3 -3 -4 -2 -2 1 1 2 4 4 2 3 2 2 3 3 2 2 3 3 2 3 2 3 3 3 3 2 4 4 5 6 8
-14 -3 -1 0 -0 -1 -0 0 -0 -1 -2 -3 -1 -1 -1 -2 -1 -2 0 2 -0 3 3 3 4 2 2 4 3 2 3 3 4 5 5 4 4 3 3 4 4 4 6 6 7 8 8
-15 -4 -1 -0 -1 -1 -0 0 0 -1 -2 -2 -2 -2 -3 -2 -2 -3 -1 -2 3 3 3 3 2 2 3 3 4 3 4 5 4 4 5 4 6 5 4 5 6 6 6 7 8 9 9
-15 -14 -1 -1 -5 -4 -4 -1 -1 -1 -1 -1 -2 -3 -4 -3 -2 -0 -0 3 4 3 3 3 4 4 4 3 5 5 4 5 4 3 5 7 6 4 4 4 4 6 8 6 7 7 8
-16 -13 -7 -4 -6 -5 -6 -4 -6 -4 -5 -5 -6 -4 -1 0 0 0 1 4 4 2 2 1 3 3 4 5 6 5 6 4 5 3 2 6 7 4 3 4 4 5 5 7 6 7 9
-16 -12 -12 -8 -6 -6 -6 -6 -4 -10 -6 -5 -4 -2 0 1 -1 -0 3 3 2 2 2 1 1 1 4 5 5 6 5 2 2 3 3 4 5 2 3 4 3 4 6 6 4 6 8
-14 -13 -16 -7 -6 -6 -6 -8 -5 -4 -4 -4 -2 -2 0 -0 -0 1 1 2 1 2 2 2 -0 -1 -0 3 4 3 4 3 2 1 4 2 4 6 3 1 1 1 3 3 5 5 3
-7 -15 -15 -7 -5 -3 -3 -8 -7 -5 -3 -3 -0 0 -1 1 2 -0 -0 0 1 2 2 2 1 -2 -3 -1 3 3 3 1 1 1 0 0 3 5 3 -1 -0 2 1 1 1 2 4
-5 -18 -13 -15 -2 -2 -1 -3 -7 -6 -5 -2 -0 -2 -1 -1 1 1 0 1 1 1 2 2 2 -2 -1 2 1 3 2 1 1 0 1 1 1 2 2 2 2 3 2 1 1 4 5
-2 -20 -12 -18 -5 -3 -3 -3 -5 -6 -5 -2 -0 -1 1 -1 1 1 0 1 2 2 1 1 1 1 0 2 1 2 0 0 -1 -1 -0 -1 2 0 0 0 0 0 1 2 2 1 5
-1 -19 -13 -16 -14 -3 -1 -1 -3 -6 -5 -4 -1 -0 -0 -0 -0 0 -0 1 2 1 2 2 2 1 1 3 2 2 1 1 1 -1 -0 -0 1 2 0 -0 -1 -0 -0 1 2 1 2
0 -14 -16 -14 -17 -2 -1 -0 -2 -4 -3 -2 0 1 1 -1 -1 -1 -0 1 2 2 1 1 1 1 2 2 1 1 -0 -1 -1 -1 -0 1 1 2 1 1 -0 -1 -1 -0 1 1 1
1 -7 -20 -13 -12 -2 -1 -1 -0 -4 -3 -2 -0 -0 -1 -1 -1 -1 -1 -0 0 0 2 2 1 1 1 1 -0 -1 -2 -2 -2 -2 -2 0 1 1 0 -1 -3 -3 -3 -3 -1 -1 0
1 -2 -24 -12 -6 -2 -1 -2 -2 -4 -3 -1 -0 -0 -0 -2 -2 -1 -1 -1 -1 1 1 1 1 1 2 1 0 -0 -0 -2 -2 -1 -1 -2 1 1 1 -1 -3 -2 -3 -2 -2 -1 -2
1 -1 -25 -12 -4 -1 -2 -3 -3 -2 -2 -1 -1 -1 -1 -1 -3 -3 -2 -1 0 1 1 1 1 0 1 1 -1 1 1 0 0 -1 -3 -2 -1 0 1 1 -0 -3 -3 -5 -4 -2 -2
1 -0 -23 -12 -7 -1 -2 -2 -2 -2 -1 -1 -0 -1 -1 -1 -2 -1 -1 -0 1 1 0 0 1 0 1 1 1 0 0 -1 1 0 1 0 -0 1 1 1 -0 -3 -3 -4 -3 -5 -1
1 -0 -18 -12 -11 -1 -2 -1 -1 -0 -2 -2 -2 -2 -2 -1 -2 -3 -1 -0 0 1 1 1 0 0 1 1 1 0 -1 -1 -1 -2 -0 -1 -0 1 0 1 -1 -3 -3 -3 -4 -1 -1
1 1 -11 -12 -13 -1 -0 -1 -0 -1 -1 0 -1 -2 -2 -2 -2 -2 -2 -2 -1 0 0 0 1 1 1 -0 0 -1 -0 -1 -2 -1 -3 1 -1 -0 -1 -1 -4 -3 -3 -3 -1 -2 -1

GFSGBSN_850_dewp_105.txt.gz
Dewpoint
5 4 1 -1 0 1 1 1 -1 1 3 3 3 2 0 -1 1 -1 0 1 0 1 2 3 5 7 6 4 3 6 0 5 6 2 -2 3 2 -1 -0 -1 -2 -1 -1 -2 -2 -2 -2
2 1 -1 2 -1 1 1 1 2 0 5 3 3 2 2 -3 -4 -2 -0 1 -5 -7 -1 3 6 6 5 4 3 5 5 6 1 -0 3 2 1 -1 -1 -1 -2 -2 -1 -1 -1 -2 -2
1 2 0 2 1 1 0 -0 -1 1 2 3 1 2 -0 -1 -3 -1 -2 -4 -16 -6 -2 -2 5 5 3 3 3 5 5 0 -0 1 3 1 -1 -1 -1 -1 -1 -1 0 -0 -1 -2 -1
2 1 0 0 1 1 1 0 -0 0 0 0 0 1 -1 -2 -4 -4 -7 -9 -12 1 1 -4 6 5 3 3 4 3 5 2 3 2 2 1 -1 -1 -1 -1 -2 -1 -0 1 -2 -1 -2
1 0 0 1 1 1 1 0 -1 -1 -0 0 -0 -1 -3 -5 -7 -7 -9 -11 1 2 1 2 5 3 4 4 3 4 1 1 2 1 1 0 -1 -1 -0 -0 -0 -1 -1 1 1 -1 -1
0 0 1 2 1 1 1 1 0 -1 -3 -3 -3 -4 -5 -5 -6 -8 -9 -9 3 4 4 5 4 4 3 3 4 2 0 -0 0 -1 -0 -0 -1 0 1 0 -1 0 1 1 2 0 1
0 -0 1 1 1 0 0 0 0 -0 -0 -2 -4 -5 -4 -4 -5 -5 -7 -3 3 3 3 3 3 4 3 3 2 2 0 0 -0 -1 -1 1 1 0 -1 -1 -2 -1 1 1 0 -1 1
-0 -0 1 1 1 0 -0 0 -1 0 -1 -2 -3 -4 -4 -3 -4 -3 -3 0 1 1 3 3 3 3 3 3 2 1 1 1 -0 1 0 0 1 -1 -1 -1 -0 -0 1 2 1 1 2
-1 0 1 0 1 1 0 0 -0 -1 -0 -2 -4 -5 -4 -4 -3 -3 -0 0 -0 1 3 3 4 3 3 2 2 1 1 0 0 1 1 1 -1 -0 -1 0 1 1 2 2 3 2 2
-4 0 1 1 0 1 -1 1 0 -1 -1 -1 -2 -3 -3 -4 -4 -1 -0 0 -1 1 3 2 3 3 3 1 2 1 1 1 2 2 1 2 0 1 2 2 2 3 1 2 3 6 7
-7 -0 0 1 1 -2 -3 -0 -0 -3 -3 -1 0 -2 -2 -5 -3 -1 0 1 1 1 3 2 2 2 2 2 2 1 -0 2 2 0 1 0 2 3 4 4 1 3 2 4 4 6 6
-13 -2 1 1 2 -1 -7 -3 -2 -4 -5 -3 -3 -3 -3 -3 -2 -1 -0 1 1 -1 4 4 2 3 3 2 3 2 1 1 2 3 2 2 1 2 3 2 3 2 3 4 4 5 7
-14 -4 0 1 1 1 -6 -10 -5 -5 -6 -4 -3 -4 -4 -3 -1 -2 1 1 -2 2 3 3 4 2 2 4 2 2 3 3 4 5 5 4 4 3 3 4 3 3 6 6 5 8 7
-14 -11 -0 -0 1 -3 -5 -11 -11 -7 -4 -4 -5 -5 -5 -3 -2 -1 -0 -2 2 4 4 3 2 2 4 3 3 3 4 5 3 4 5 4 3 5 3 5 6 6 7 7 7 8 8
-15 -15 -6 -3 -5 -3 -6 -7 -13 -11 -9 -7 -5 -0 1 0 1 1 0 3 4 4 2 3 3 3 4 5 5 5 5 5 4 4 4 7 4 4 4 4 5 7 7 6 7 7 8
-17 -14 -11 -6 -4 -6 -6 -6 -11 -10 -9 -7 -5 -3 -0 -1 -1 -0 1 4 4 2 2 3 3 2 3 4 4 4 6 4 5 2 3 5 7 4 3 4 4 6 6 7 7 7 8
-7 -15 -16 -4 -4 -3 -8 -7 -7 -7 -7 -8 -5 -3 -1 -2 -2 -1 2 3 2 1 2 2 1 2 3 4 3 5 4 3 3 3 3 4 5 3 3 5 3 6 7 7 6 7 8
-2 -18 -14 -8 -2 -2 -4 -8 -7 -6 -7 -8 -6 -1 -1 -3 -1 -0 1 1 1 1 2 2 -0 -2 1 3 4 4 3 3 2 3 5 4 4 6 3 0 0 2 3 4 6 6 4
1 -10 -15 -18 -4 -2 -2 -4 -7 -6 -6 -5 -3 -2 -2 -1 0 -1 -1 0 1 1 2 2 2 -0 -2 0 3 3 2 0 1 1 0 0 2 5 2 -1 0 2 1 1 1 2 4
1 -2 -20 -13 -19 -4 -2 -1 -5 -6 -4 -3 -2 -2 -2 -1 1 0 0 1 1 0 1 1 1 -1 -0 1 0 2 1 0 0 0 1 0 1 2 2 2 2 2 1 1 2 5 6
2 0 -18 -13 -19 -6 -2 -1 -1 -5 -3 -3 -2 -1 0 -2 -0 -0 -1 0 1 2 1 1 1 2 0 2 1 1 1 0 -1 -1 -0 -1 2 0 0 -0 -0 0 1 2 4 3 6
2 1 -9 -15 -16 -3 -1 -1 -1 -5 -3 -3 -2 -1 -1 -1 -1 -1 -1 1 2 2 2 2 2 1 1 2 2 3 2 0 1 -1 -0 -0 1 1 -1 -0 -0 -1 -0 1 2 1 3
2 1 -4 -19 -14 -3 -2 -1 -3 -5 -2 -2 -0 -1 -2 -2 -2 -2 -1 0 1 1 1 1 1 1 1 1 1 1 1 -0 -2 -1 -0 0 0 1 -1 0 -1 -2 -1 -0 1 1 1
2 1 -1 -21 -14 -4 -1 -2 -4 -5 -3 -2 -1 0 -3 -2 -2 -1 -1 -1 -0 -0 2 1 1 1 1 1 1 -0 -1 -2 -2 -2 -2 -0 1 -0 0 -2 -5 -4 -3 -3 -0 -1 -0
0 2 -0 -20 -13 -4 -2 -3 -4 -4 -2 -1 -1 -1 -1 -2 -2 -1 -2 -1 -0 -0 1 1 1 1 1 1 -0 -1 -1 -4 -3 -3 -2 -2 0 0 1 -1 -5 -3 -3 -2 -2 -1 -2
-1 2 1 -16 -13 -5 -2 -1 -3 -3 -1 -1 -2 -2 -1 -2 -3 -3 -2 -1 0 0 -0 -0 -0 0 0 -1 -1 0 -0 -0 -2 -1 -3 -2 -2 -0 0 0 -3 -5 -3 -5 -5 -2 -3
-3 2 1 -11 -13 -6 -3 -1 -2 -2 -1 -1 -1 -1 -2 -2 -2 -2 -1 -1 0 1 0 0 1 1 0 0 1 0 -0 -2 -0 0 -0 -1 -0 0 1 1 -1 -4 -4 -4 -3 -7 -2
-4 2 2 -4 -14 -7 -2 -1 -0 -1 -2 -1 -3 -3 -2 -2 -2 -2 -2 -1 -0 1 0 0 0 -0 1 0 1 0 -1 -1 -1 -3 -1 -1 -1 0 0 1 -2 -3 -3 -4 -5 -2 -1
-5 2 2 -0 -18 -10 -2 -1 -1 -1 -1 -0 -1 -2 -2 -2 -2 -2 -2 -2 -2 -1 0 0 1 1 1 -1 -0 -1 0 -2 -2 -0 -4 1 -2 -1 -1 -1 -5 -4 -5 -4 -3 -2 -1

GFSGBSN_850_dewp_108.txt.gz
Dewpoint
1 1 1 2 1 2 2 1 2 1 2 1 4 4 2 2 1 -0 -1 -0 -5 -2 -10 -4 2 5 6 5 4 6 5 5 6 5 2 2 1 -0 -0 -1 -2 -1 -2 -1 -2 -2 -2
1 1 2 1 2 2 2 1 1 1 0 2 2 1 1 -3 -1 -1 -1 -5 -6 -14 -7 1 2 4 6 5 4 4 6 6 4 1 2 2 1 -1 -1 -2 -2 -1 -1 -1 -2 -3 -2
1 1 2 1 1 1 2 1 0 1 1 -0 0 1 0 -3 -5 -5 -6 -8 -11 -14 -5 1 5 6 5 4 4 4 5 5 3 0 3 0 -1 -1 -1 -1 -1 -1 -1 -1 -2 -2 -2
1 1 1 1 2 1 1 1 1 0 0 0 -1 -2 -5 -5 -7 -7 -8 -11 -3 1 -1 -1 5 5 4 4 4 4 3 2 1 3 2 1 -1 -1 -1 -1 -2 -2 -2 -1 -5 -1 -2
1 1 1 1 2 2 1 -0 2 1 -1 -0 -2 -5 -4 -6 -7 -8 -10 4 4 2 1 3 5 3 4 4 5 4 4 3 2 1 1 -0 -1 -1 -1 -1 -2 -2 -2 0 0 -1 -1
0 1 1 1 1 2 -1 -2 1 1 0 -3 -2 -3 -5 -5 -6 -7 -9 3 4 2 4 4 4 2 4 4 4 2 2 1 -0 -0 -1 -1 -0 -1 -0 -2 -3 -1 -1 0 1 -1 1
0 1 1 1 1 3 1 -2 -2 0 -1 -4 -4 -4 -4 -5 -7 -7 -7 3 1 3 3 4 4 4 4 4 3 1 0 0 -1 -1 -1 1 0 -1 -1 -2 -3 -1 0 1 -1 -2 -0
-3 1 1 1 1 2 2 1 -5 -2 -0 -4 -4 -3 -3 -4 -4 -4 -6 0 1 2 3 4 3 3 3 3 3 1 0 1 -1 0 -0 -1 0 -1 -2 -2 -1 -0 1 1 0 -0 1
-9 1 1 1 1 2 2 -4 -8 -7 -4 -3 -4 -3 -4 -3 -2 -3 -1 0 2 2 3 3 4 4 3 3 3 1 1 -0 -0 1 1 0 -2 -1 -1 0 1 1 1 1 1 0 1
-12 -2 1 1 1 2 1 -7 -9 -9 -10 -7 -5 -4 -6 -5 -3 -1 -1 0 2 2 0 2 3 3 3 2 2 1 1 1 1 1 1 1 -1 -0 0 1 1 3 -0 0 2 3 5
-12 -10 1 1 1 2 2 -5 -7 -11 -11 -9 -7 -6 -5 -3 -1 -1 0 1 1 1 2 2 3 2 2 3 1 1 1 2 3 1 1 -0 0 3 4 3 1 3 1 2 4 6 6
-14 -9 -6 1 1 2 2 0 -6 -8 -10 -9 -7 -5 -4 -3 -1 0 1 1 0 -1 3 4 3 3 3 2 3 2 0 1 2 3 2 1 1 1 2 2 2 2 3 3 4 5 6
-15 -14 -8 -6 -1 1 2 0 -6 -7 -8 -6 -2 -1 -0 -1 -2 -1 -0 0 -1 1 3 4 4 3 3 4 3 3 3 3 3 4 3 2 3 2 3 4 3 4 5 5 4 8 6
-17 -15 -10 -9 -5 -5 -2 -4 -2 -3 -6 -5 -4 -1 0 0 1 0 -1 -2 1 4 4 2 2 3 3 3 3 3 3 4 2 3 5 3 1 4 3 3 6 6 7 7 7 6 6
-8 -16 -15 -5 -7 -6 -6 -8 -5 -4 -3 -4 -5 -2 -1 -1 -0 -0 -1 1 4 3 2 2 2 3 5 5 5 4 5 5 4 3 5 7 4 4 3 3 4 6 7 6 7 7 7
-0 -17 -15 -14 -5 -6 -8 -7 -6 -5 -4 -4 -4 -3 -3 -2 -1 -1 1 3 3 2 2 2 3 2 3 4 5 5 6 4 5 3 2 5 6 3 3 4 4 6 5 7 7 7 7
1 -4 -19 -15 -17 -5 -5 -8 -8 -6 -6 -6 -4 -3 -2 -4 -1 -1 3 3 2 1 2 2 1 3 3 4 4 4 4 3 3 3 3 4 5 3 3 5 3 6 7 6 6 7 7
2 -0 -16 -15 -19 -17 -5 -3 -8 -7 -7 -5 -3 -2 -3 -3 -1 -1 -0 1 1 1 2 1 1 -1 2 3 4 4 3 2 2 3 4 3 4 5 3 1 0 1 3 5 6 7 5
1 2 -4 -20 -14 -17 -6 -3 -2 -7 -5 -3 -3 -3 -2 -4 -0 -1 -1 0 0 1 1 2 1 0 -1 0 2 2 2 0 1 2 1 1 2 5 1 1 0 2 1 1 2 3 4
0 1 0 -19 -14 -14 -4 -3 -2 -6 -4 -3 -3 -3 -2 -1 0 -0 0 0 1 0 1 1 1 -1 -1 0 -0 1 1 -0 -0 0 1 -1 1 2 4 3 1 2 2 2 2 5 5
-3 1 1 -9 -15 -12 -3 -2 -2 -6 -4 -3 -3 -1 -0 -2 -1 -1 -1 -0 1 2 1 1 0 1 2 1 0 1 1 -0 -1 -1 -0 -1 1 0 0 -0 -0 0 1 3 5 4 6
-8 1 1 -3 -16 -11 -3 -2 -4 -6 -4 -3 -2 -2 -1 -1 -1 -2 -2 0 1 1 1 2 2 1 1 2 2 2 1 -0 0 -1 -1 -1 1 1 0 -1 0 -1 -1 1 1 2 4
-12 -1 1 -1 -17 -8 -3 -3 -5 -5 -3 -2 -1 -1 -2 -2 -2 -2 -1 -0 1 0 1 1 1 1 1 1 1 1 1 1 -1 -1 -0 -0 0 1 -1 -1 -3 -3 -1 -0 1 1 2
-10 -4 1 -1 -18 -9 -3 -4 -5 -5 -2 -2 -1 -1 -3 -2 -2 -1 -1 -1 -0 -1 1 1 1 1 0 1 1 0 0 -0 -1 -2 -2 -0 0 -0 0 -3 -6 -6 -3 -3 -0 -1 -0
-9 -6 1 1 -16 -12 -3 -3 -4 -3 -2 -1 -1 -1 -2 -3 -2 -1 -2 -1 -1 -1 1 1 1 1 1 1 -1 -1 -2 -5 -4 -3 -2 -2 -1 -0 -0 -1 -6 -4 -3 -2 -1 -2 -2
-7 -4 2 1 -11 -13 -3 -3 -3 -3 -2 -1 -1 -2 -1 -3 -3 -2 -2 -1 -1 -0 -1 -1 -0 0 -0 -1 -1 -0 -2 -1 -2 -2 -3 -2 -2 -1 -0 -0 -7 -8 -3 -5 -5 -1 -3
1 -4 -1 2 -3 -14 -4 -2 -2 -2 -2 -2 -2 -2 -2 -2 -3 -2 -2 -1 -0 0 -0 -0 0 0 -0 -0 1 0 -0 -2 -0 -0 -1 -1 -1 -0 0 1 -2 -5 -4 -5 -2 -7 -3
6 -2 -0 2 1 -15 -8 -2 -1 -2 -1 -1 -2 -2 -2 -2 -2 -3 -2 -1 -0 1 -0 -1 -1 -1 0 -0 1 0 -1 -1 -1 -3 -2 -1 -1 -1 -0 1 -2 -4 -4 -3 -6 -3 -2
6 4 -2 2 2 -9 -11 -4 -1 -1 -1 -1 -1 -2 -2 -2 -3 -2 -3 -2 -2 -1 0 0 0 0 1 -1 -0 -1 0 -2 -3 -0 -4 -0 -2 -2 -1 -2 -6 -4 -4 -5 -4 -3 -2

GFSGBSN_850_dewp_111.txt.gz
Dewpoint
1 1 1 2 1 1 2 2 2 2 1 0 1 1 1 2 2 2 -1 -2 -4 -10 -8 -3 2 4 5 6 5 2 4 6 6 3 0 -1 -0 -1 -0 -1 -2 -1 -1 -1 -2 -2 -2
1 1 0 1 2 1 2 2 2 0 2 1 1 1 0 -1 -1 -3 -5 -7 -5 -15 -13 0 3 3 5 4 3 3 4 6 6 3 -0 2 0 -1 -1 -2 -2 -2 -1 -1 -3 -3 -2
2 1 1 2 1 1 2 2 2 0 -3 1 0 1 -1 -0 -0 -5 -8 -9 -11 -14 -6 3 1 3 5 4 4 5 5 6 3 -2 2 0 -0 -2 -2 -2 -1 -1 -1 -2 -3 -2 -2
2 0 1 1 1 1 2 3 2 0 -1 -9 -4 -0 -1 -1 -3 -8 -8 4 3 0 -4 5 5 4 4 4 4 3 3 2 2 2 1 -1 -1 -2 -2 -1 -3 -2 -2 -2 -6 -2 -2
1 0 0 1 1 1 2 2 2 1 -6 -8 -8 -7 -6 -7 -8 -8 3 4 2 1 2 5 4 2 3 4 4 3 2 2 2 2 1 -0 -2 -1 -1 -1 -2 -2 -1 -0 -1 -2 -1
1 1 0 0 1 1 2 2 3 1 -6 -6 -5 -5 -6 -8 -9 -8 3 2 3 3 4 4 3 3 3 4 4 3 2 1 0 -0 -1 -1 -1 -1 -1 -1 -3 -2 -0 -0 0 -2 -1
-1 1 0 0 1 1 1 2 2 2 -3 -6 -6 -7 -7 -9 -11 -6 3 3 2 3 3 3 4 4 4 2 2 3 1 -1 -2 -2 0 0 0 -1 -1 -2 -3 -1 -0 0 -1 -2 -1
-4 -1 0 0 1 1 0 -1 1 -2 -2 -5 -8 -7 -6 -8 -7 -6 2 1 2 3 3 4 3 4 3 3 2 1 0 -0 -1 0 -1 -1 -0 -2 -2 -2 -1 -0 1 1 -0 -1 -0
-8 -3 -2 0 1 1 2 -2 -2 -3 -4 -7 -7 -7 -5 -5 -3 -3 0 2 3 2 2 2 3 3 3 3 2 1 0 -0 -0 0 0 -0 -2 -2 -1 -0 0 0 1 0 1 -0 0
-13 -5 -4 -6 0 1 1 2 -5 -5 -5 -6 -6 -4 -5 -6 -6 -2 0 2 1 1 -0 2 2 3 3 2 2 1 1 1 1 0 1 0 -1 -1 0 1 0 3 -0 0 1 3 4
-15 -11 -3 -7 -8 0 2 1 2 -6 -5 -5 -5 -4 -1 -3 -3 -2 1 1 0 -1 -1 2 3 2 2 3 1 1 1 1 3 3 -0 -1 0 2 3 2 1 3 1 2 2 4 5
-15 -14 -5 -5 -8 -10 -2 2 2 1 -3 -0 0 0 -2 -1 -3 -1 -0 -0 -2 -2 2 3 3 3 2 2 2 1 1 1 1 3 1 -0 -1 1 1 1 1 1 3 3 4 5 6
-4 -17 -14 -3 -3 -8 -10 -6 -0 0 -2 -3 -1 0 -0 -2 -2 -1 -1 -2 -1 0 2 4 3 3 3 3 3 2 2 2 3 3 1 1 2 1 1 4 3 3 4 5 4 7 6
0 -12 -15 -16 -4 -5 -8 -7 -5 -5 -4 -4 -4 -1 -1 -0 -1 -2 -1 -2 1 3 3 1 2 2 2 2 2 3 3 3 2 3 4 3 2 3 2 3 5 6 6 7 7 6 6
1 -1 -20 -15 -20 -6 -4 -7 -8 -7 -6 -5 -4 -2 -1 -1 -0 -1 -1 2 3 3 2 2 2 4 4 4 3 3 4 3 3 2 4 6 3 3 3 3 4 6 7 6 7 7 7
2 0 -6 -18 -16 -19 -5 -4 -5 -8 -7 -6 -4 -2 -2 -1 -1 -1 0 3 3 2 2 2 3 2 3 3 4 4 5 3 4 3 3 5 6 2 3 3 4 6 5 7 7 7 7
-2 1 -1 -19 -14 -15 -6 -4 -4 -8 -7 -6 -4 -3 -2 -2 -1 -1 2 2 1 1 2 1 1 3 3 4 4 4 4 3 3 4 3 4 5 3 3 5 6 6 7 6 6 7 7
-9 1 1 -11 -15 -12 -4 -3 -3 -6 -7 -7 -5 -2 -1 -3 -1 -2 -0 -0 1 1 1 1 1 -2 2 3 4 4 3 2 2 2 4 3 4 5 3 0 0 1 5 5 6 6 5
-13 -4 1 -4 -17 -10 -4 -3 -3 -7 -6 -6 -5 -3 -1 -3 -0 -2 -1 -0 0 1 1 1 1 -0 -1 1 2 2 1 0 2 3 3 2 3 4 1 1 0 3 4 4 5 4 4
-13 -8 0 0 -17 -8 -3 -4 -6 -8 -6 -5 -4 -3 -2 -1 -0 -1 0 0 1 0 1 1 1 -0 -1 0 -1 1 0 -0 -1 0 1 -0 1 2 3 2 1 2 1 4 3 4 5
-13 -12 -2 1 -15 -8 -3 -4 -6 -7 -5 -5 -3 -1 -1 -2 -1 -1 -1 -0 1 2 1 0 -0 1 2 1 -0 1 1 -1 -2 -2 -0 -1 1 0 0 0 -0 1 0 3 4 3 5
-7 -12 -4 1 -10 -9 -4 -5 -6 -6 -5 -5 -3 -2 -1 -1 -1 -2 -1 0 1 1 1 1 1 1 1 2 2 3 2 -0 -0 -2 -1 -1 1 1 1 -1 0 1 -1 1 2 4 4
-1 -7 -6 1 -5 -12 -3 -4 -6 -4 -4 -4 -2 -2 -3 -2 -2 -2 -1 -1 0 -0 1 1 1 1 1 1 1 1 1 1 -0 -1 -1 -0 -0 0 0 -2 -2 -3 -3 0 1 1 2
5 -2 -8 -0 -1 -14 -5 -3 -4 -3 -3 -3 -3 -2 -4 -2 -2 -1 -1 -1 -0 -0 1 1 1 1 0 0 0 0 1 1 0 -1 -2 -1 -0 -1 0 -4 -8 -7 -3 -3 -0 -1 -0
6 4 -3 -2 1 -12 -7 -3 -3 -3 -2 -3 -3 -2 -2 -3 -3 -2 -1 -1 -1 -1 0 1 0 0 -0 -0 -1 -2 -3 -5 -3 -3 -2 -2 -1 -0 -1 -1 -8 -5 -4 -2 -1 -1 -2
6 6 2 -3 1 -8 -9 -4 -2 -2 -2 -2 -3 -2 -3 -3 -4 -2 -2 -1 -1 -2 -2 -1 -0 0 -0 -2 -2 -2 -4 -1 -2 -2 -2 -3 -2 -1 -0 -2 -9 -11 -4 -5 -5 -2 -6
6 6 5 -2 1 -2 -12 -4 -2 -1 -2 -2 -3 -3 -2 -2 -3 -3 -2 -1 -1 -0 -1 -1 -0 0 0 -1 0 -0 -1 -2 -1 -1 -2 -1 -2 -0 -0 -0 -3 -7 -4 -5 -2 -7 -4
6 5 6 3 1 1 -8 -11 -3 -2 -1 -1 -2 -2 -2 -2 -3 -3 -3 -1 -0 0 -1 -2 -1 -1 -0 -1 1 -0 -1 -2 -1 -3 -3 -3 -3 -1 -1 1 -2 -4 -4 -3 -5 -5 -3
5 5 5 5 -0 2 -1 -12 -7 -2 -1 -1 -1 -1 -2 -2 -3 -3 -3 -3 -2 -1 -0 -0 -1 0 1 -1 -1 -1 1 -2 -3 -0 -4 -2 -3 -3 -2 -3 -6 -4 -4 -5 -5 -4 -4

GFSGBSN_850_dewp_114.txt.gz
Dewpoint
2 1 2 1 1 1 1 1 1 1 1 2 0 2 2 2 2 1 -2 -3 -5 -7 -6 -1 2 2 6 5 6 4 5 7 5 -3 -4 -2 -3 -2 -2 -2 -1 -2 -2 -1 -2 -2 -2
2 2 0 1 1 1 2 1 1 1 1 1 1 -1 -1 1 -0 -3 -2 -5 -8 -10 -11 -1 4 5 5 5 5 6 5 7 4 1 -1 -1 -1 -1 -2 -2 -3 -2 -2 -3 -3 -3 -3
2 2 0 2 1 2 2 1 1 1 1 1 -1 -5 -5 -6 -6 -8 -8 -9 -10 -12 -6 -2 3 5 3 5 5 5 6 5 4 0 1 -1 -2 -2 -2 -2 -1 -2 -3 -4 -4 -3 -4
2 2 0 2 2 2 2 0 2 1 -0 0 0 -6 -7 -9 -10 -3 4 4 2 -6 3 2 3 3 4 5 4 4 2 1 2 1 -1 -1 -2 -2 -2 -2 -3 -3 -3 -3 -5 -3 -2
3 2 1 2 2 1 2 1 1 2 -2 -2 0 -5 -8 -8 -7 3 4 0 -2 4 5 3 3 3 4 3 3 3 3 2 2 1 0 -1 -3 -1 -2 -1 -2 -3 1 -3 -5 -3 -2
3 2 2 2 2 2 2 2 1 0 -1 -3 -1 -7 -8 -10 -1 3 4 3 4 3 3 3 2 2 3 4 4 3 2 1 1 1 -1 -1 -1 -1 -1 -2 -1 -3 0 -2 -3 -3 -3
2 2 2 2 1 1 3 0 1 -1 -2 -3 -4 -6 -7 -10 2 3 3 2 3 3 3 4 4 3 3 3 3 2 1 -1 -1 -2 -1 -0 -1 1 -1 -3 -4 -3 -2 -1 -3 -3 -1
-9 1 1 2 2 2 1 0 -4 -6 -3 -2 -4 -4 -7 -6 2 1 0 2 3 3 3 3 3 3 3 2 2 1 0 -1 -1 0 -1 -1 -0 -1 -2 -2 -2 -1 -0 -0 -1 -2 -0
-14 -3 -0 2 2 2 0 -1 -4 -4 -5 -4 -3 -4 -5 -4 0 1 1 2 2 1 3 2 3 3 3 2 1 1 1 -0 -1 -0 -1 -1 -0 -1 -1 -0 0 -0 1 1 2 -0 -0
-16 -13 -1 -0 1 -1 -1 -5 -3 -1 -0 -1 -3 -1 -5 -5 0 1 1 1 1 -0 3 2 2 2 2 2 2 1 1 1 0 0 0 -0 -1 -2 -1 -0 -1 2 -1 0 1 2 5
-4 -17 -14 -0 -1 -1 -6 -8 -7 -6 -4 -1 0 -1 -6 -8 -2 0 0 -1 -1 -2 4 2 2 2 2 2 1 1 1 1 2 2 1 -1 1 1 2 1 -0 1 0 2 2 4 5
0 -12 -16 -16 -2 -2 -2 -6 -7 -6 -5 -2 -0 -1 -1 -3 -2 -1 -1 -1 -3 6 4 3 3 3 2 2 2 1 1 1 1 2 1 0 -1 0 -0 0 0 -1 2 2 3 5 6
1 -1 -19 -14 -18 -6 -3 -4 -7 -7 -6 -2 -2 -1 -1 -3 -2 -2 -2 -3 6 3 1 2 2 2 1 2 1 1 0 1 2 5 4 2 2 1 0 2 2 2 4 7 7 7 6
1 1 -7 -18 -15 -14 -4 -3 -5 -8 -7 -5 -2 -1 -1 -1 -3 -3 -3 3 3 2 2 1 2 2 1 3 2 2 2 3 2 2 3 4 5 3 2 2 4 4 6 7 7 6 5
-4 1 -1 -18 -15 -9 -3 -4 -4 -8 -7 -8 -4 -1 -1 -1 -1 -2 1 5 4 2 1 2 2 2 3 4 2 2 4 3 2 2 4 5 4 2 2 2 3 6 7 4 8 7 8
-12 -1 0 -10 -15 -8 -4 -3 -3 -8 -6 -7 -5 -3 -1 -1 -1 -1 4 3 3 2 1 1 3 2 3 2 3 3 3 2 3 2 1 3 5 2 3 3 3 5 5 8 7 7 7
-12 -8 0 -4 -16 -7 -3 -3 -4 -7 -7 -6 -5 -3 -2 -1 -1 1 4 3 2 1 2 2 1 3 3 3 3 3 3 2 3 4 3 4 4 3 2 5 6 5 7 6 6 6 7
-10 -9 -1 -1 -16 -7 -4 -5 -8 -7 -6 -6 -4 4 -2 -2 3 1 3 1 1 1 1 1 1 -1 1 3 3 3 3 2 2 2 4 2 4 5 3 1 2 2 5 6 6 7 5
-5 -9 -5 0 -12 -8 -4 -6 -8 -7 -6 -6 -4 -3 -2 -2 4 3 -0 0 0 1 1 1 1 0 -0 1 2 2 1 1 2 2 3 2 4 5 1 1 0 2 4 4 4 4 5
5 -7 -6 -0 -6 -11 -5 -6 -8 -6 -6 -6 -6 5 -2 -2 -1 0 1 2 2 1 1 1 1 -0 -0 0 -1 1 -1 -0 -0 1 2 1 2 2 3 1 1 1 1 4 3 5 4
6 -1 -4 -1 -1 -13 -5 -6 -7 -6 -5 -6 -3 0 -1 3 1 0 0 1 2 2 1 0 0 1 1 1 -0 0 1 -1 -1 -1 0 -0 3 2 1 -0 0 0 0 3 4 3 5
7 5 -2 -2 -0 -12 -7 -5 -5 -6 -5 -5 -2 0 -1 -0 -1 -1 0 1 1 1 1 1 0 1 1 1 1 2 2 0 -1 -2 -1 -1 3 1 2 -1 0 1 -1 -1 4 4 3
6 6 3 -3 0 -8 -10 -5 -4 -5 -6 -5 -4 -3 -2 -1 -1 -0 -0 -0 0 0 1 1 0 0 1 0 0 0 1 1 0 1 -0 -0 1 2 1 -3 -3 -2 -4 -1 0 1 3
5 5 6 -2 -0 -2 -11 -5 -4 -4 -5 -5 -4 -3 -3 -1 -1 -2 -1 -1 -0 -0 1 1 1 1 0 0 0 1 1 1 1 1 -1 -0 0 1 3 -1 -2 -5 -3 -2 -1 -1 -0
5 5 5 2 -1 -0 -10 -6 -3 -3 -3 -4 -4 -4 -4 -3 -3 -2 -1 -1 -1 -1 -0 1 1 0 0 -0 -1 -2 -3 -3 -2 -1 -1 -1 -0 1 2 -1 -8 -6 -6 -2 -1 -1 -3
6 5 5 6 -2 1 -8 -8 -3 -3 -3 -3 -4 -3 -3 -3 -4 -2 -1 -1 -1 -1 -1 -0 -1 -0 0 -1 -1 -2 -5 -3 -3 -3 -3 -2 -1 -1 -0 -1 -7 -9 -4 -4 -4 -2 -5
6 6 5 5 4 1 -2 -10 -4 -2 -2 -2 -2 -3 -3 -2 -4 -4 -2 -1 -1 -0 -1 -1 -0 0 0 -1 -1 -1 -2 -2 -2 -2 -2 -1 -1 1 -1 -2 -5 -7 -4 -5 -2 -6 -5
5 5 5 5 5 1 1 -5 -8 -3 -2 -2 -1 -1 -2 -2 -3 -3 -3 -2 -1 -0 -1 -2 -1 -0 1 1 -0 -1 -0 -2 -1 -2 -3 -4 -4 -2 -2 0 -1 -4 -4 -3 -5 -5 -3
5 5 5 5 5 5 1 1 -8 -8 -3 -2 -1 -1 -1 -2 -3 -3 -3 -4 -2 -1 -1 -1 -1 0 1 2 1 0 1 -0 -1 -2 -4 -2 -4 -4 -3 -5 -5 -4 -4 -5 -4 -4 -3

GFSGBSN_850_dewp_117.txt.gz
Dewpoint
3 2 3 3 3 2 2 1 1 -0 1 1 1 1 -0 -0 2 1 0 -3 -3 -2 -2 -1 3 6 6 5 5 5 7 6 2 -0 -1 -3 -6 -5 -4 -4 -3 -5 -3 -3 -3 -3 -3
2 2 3 3 2 2 2 1 1 0 0 -0 -1 -0 -3 -6 -5 -2 0 -1 -4 -8 -3 2 3 5 4 5 5 5 5 6 1 -0 -1 -2 -3 -3 -3 -3 -4 -3 -3 -4 -4 -4 -4
2 2 2 3 3 2 1 1 1 -2 -0 -3 -2 -0 -5 -8 -7 -8 -5 -7 -7 -13 -7 5 5 3 3 5 5 6 7 5 1 1 0 -0 -2 -3 -3 -3 -2 -3 -3 -5 -5 -4 -5
3 2 2 3 3 3 2 1 -0 -3 -4 -0 0 -1 -8 -7 2 4 3 3 -5 -0 -3 4 4 4 4 4 3 2 3 1 0 0 -0 -1 -2 -2 -3 -3 -4 -4 -4 -2 -4 -3 -3
2 3 2 2 3 3 2 2 -0 -2 -5 -7 -8 -8 -9 2 1 -0 0 3 4 4 2 4 4 3 3 4 4 2 2 1 1 -0 -1 -2 -2 -2 -3 -1 -2 -2 2 -3 -4 -3 -3
1 1 1 2 3 3 3 -1 1 -2 -4 -6 -10 -9 -6 3 3 4 3 4 3 3 3 2 2 2 3 3 3 3 2 1 1 0 -1 -2 -2 -2 -2 -1 1 -1 -0 -3 -5 -3 -3
-10 -0 -2 1 0 3 3 3 -1 -4 -3 -6 -10 -9 2 3 3 3 3 3 3 3 2 2 3 3 3 3 3 2 0 -1 -1 -2 -1 -1 -0 2 -0 -4 -5 -5 -5 -5 -5 -4 -1
-17 -5 -2 -2 -4 -3 2 2 2 0 -2 -2 -9 -10 -0 2 2 -0 1 3 3 3 3 3 3 3 2 2 2 0 1 -1 -1 0 -2 -1 0 -2 -3 -3 -3 -3 -2 -2 -1 -2 -1
-7 -17 -14 -5 -4 -10 -7 -1 -1 -1 -0 -2 -6 -13 -1 1 0 0 1 1 2 2 1 2 3 3 3 2 1 1 -0 -1 -2 -1 -2 -1 -0 -2 -2 -1 -1 -2 -1 -1 1 -0 -1
-1 -15 -15 -18 -6 -7 -8 -6 -3 -4 -2 -1 -3 -11 -4 -1 1 -0 0 0 -0 -1 3 2 1 2 2 2 1 1 2 1 -1 -1 -2 -1 -2 -2 -2 -1 -2 0 -1 -0 1 3 5
1 -4 -19 -15 -19 -7 -6 -9 -6 -4 -3 -1 -1 -7 -6 -3 -1 1 -1 -1 -3 -1 3 1 2 1 1 0 1 1 1 1 0 0 1 -0 1 1 1 1 -1 1 0 1 2 3 5
1 -0 -12 -16 -14 -13 -6 -8 -8 -6 -4 -2 -1 -2 -5 -3 -1 -1 -2 -2 -1 6 4 3 2 2 2 1 1 1 1 1 0 1 0 -0 -2 -1 0 -1 -0 -1 2 2 2 3 6
-2 1 -5 -17 -13 -8 -8 -6 -10 -8 -6 -2 -1 -1 -3 -2 0 -2 -3 0 6 4 1 2 2 -0 -1 0 0 0 0 1 2 6 5 3 2 0 -1 2 1 2 4 6 8 8 7
-8 -0 -1 -15 -13 -6 -4 -5 -7 -8 -8 -5 -1 -1 -1 -2 -3 -2 -1 2 3 1 1 0 1 1 2 2 1 1 1 3 2 1 3 5 6 2 1 2 4 4 5 7 8 7 5
-9 -4 0 -11 -12 -5 -4 -4 -8 -7 -7 -3 -2 -1 -1 -1 -2 -1 2 5 3 1 0 1 1 0 2 2 2 2 2 3 2 1 3 5 4 1 1 1 2 6 7 5 7 5 7
-3 -8 -1 -5 -12 -5 -6 -8 -8 -8 -8 -4 -4 -3 -1 -1 -0 2 4 4 2 1 1 1 3 2 2 1 2 2 2 2 3 2 1 2 5 1 3 3 3 4 5 8 7 8 8
1 -5 -2 -1 -13 -6 -6 -9 -8 -7 -7 -6 -6 2 -2 -2 1 2 6 3 1 1 1 1 1 1 1 2 2 2 2 2 2 3 2 3 4 3 2 5 4 6 6 6 6 5 7
5 -1 -3 0 -11 -7 -6 -8 -8 -7 -6 -6 -3 5 -3 -2 4 2 3 1 1 1 1 1 1 -1 0 2 2 2 2 1 1 2 3 2 3 5 3 -0 1 1 4 5 6 7 4
6 1 -1 -1 -5 -10 -6 -7 -7 -8 -7 -6 0 1 -4 -3 5 3 1 1 1 1 1 1 1 -0 -0 0 2 1 0 1 1 2 2 1 3 5 3 1 0 2 4 4 3 4 5
6 5 1 -1 -0 -11 -7 -6 -6 -7 -8 -7 -1 5 1 1 1 0 1 1 2 1 0 0 -0 -1 -1 -1 -2 -0 -2 -1 -0 1 1 1 2 2 3 -0 -0 1 -0 3 3 6 5
6 6 3 1 0 -7 -8 -6 -6 -7 -7 -7 -2 2 -0 4 1 0 0 1 1 1 1 0 -0 -0 -1 -2 -2 -2 -2 -2 -1 -1 1 1 3 2 1 -1 -2 -1 0 -1 4 4 5
5 5 5 3 0 -1 -10 -6 -5 -6 -6 -6 0 1 0 0 -0 -0 0 1 1 -0 1 -1 0 -1 -1 -1 -1 -1 -0 -2 -3 -2 -2 -1 2 0 2 -2 -1 0 -1 -1 -1 1 3
5 5 5 4 1 0 -8 -8 -5 -5 -7 -7 -5 -3 0 0 -0 -0 -1 -1 -0 0 1 1 0 0 -1 0 1 -0 -0 -1 -0 -0 -1 -1 0 1 1 -2 -3 -3 -4 -4 -3 -1 1
6 5 5 5 1 0 -4 -9 -6 -4 -4 -5 -6 -6 -2 -1 -1 -2 -2 -1 -1 -0 1 0 1 0 0 0 -0 -1 0 -0 0 0 0 0 -0 0 4 0 1 -3 -3 -3 -5 -3 -2
6 6 5 5 4 -0 -0 -8 -7 -4 -3 -4 -5 -5 -2 -4 -4 -3 -2 -2 -1 -1 -0 -1 -1 0 0 -0 -2 -4 -4 -3 -2 -1 -0 -0 0 1 2 -1 -5 -9 -7 -2 -1 -3 -3
6 5 5 5 5 2 0 -4 -8 -5 -4 -3 -3 -4 -4 -3 -5 -3 -2 -2 -2 -2 -2 -1 0 -0 1 -1 -2 -2 -6 -5 -5 -3 -3 -1 -1 1 -1 -0 -6 -6 -4 -4 -4 -3 -5
5 5 5 5 5 5 0 0 -7 -7 -4 -3 -2 -2 -3 -2 -3 -4 -3 -2 -2 -1 -2 -2 -1 1 1 -1 -1 -3 -4 -4 -4 -4 -1 -0 -1 1 0 1 -3 -6 -4 -4 -2 -3 -4
5 5 5 5 5 5 4 1 -0 -7 -6 -3 -3 -2 -2 -1 -2 -3 -4 -2 -1 -0 -2 -1 -1 -0 0 0 -2 -3 -2 -4 -2 -5 -4 -4 -4 -1 -3 -2 0 -6 -4 -3 -4 -4 -4
5 5 5 5 5 5 5 3 2 -1 -7 -5 -3 -2 -1 -1 -2 -3 -3 -4 -4 -1 -0 -1 -1 0 -0 2 -0 -1 -1 -2 -3 -5 -4 -3 -6 -7 -6 -5 -5 -5 -5 -4 -4 -3 -4

GFSGBSN_850_dewp_120.txt.gz
Dewpoint
3 2 2 4 3 2 3 1 -1 -2 0 1 1 -1 -1 -7 -4 -1 1 -3 -4 -0 -1 0 5 7 6 5 6 5 7 5 -2 -0 -1 -2 -4 -4 -2 -3 -3 -3 -3 -4 -3 -3 -3
3 2 2 3 3 1 2 1 1 1 0 1 1 -4 -7 -8 -7 -6 -6 -7 -8 -4 -0 1 5 6 4 5 5 5 7 3 -1 -1 -2 -3 -4 -3 -4 -3 -2 -3 -2 -3 -4 -4 -5
3 4 1 3 3 2 0 1 2 -1 -4 -2 -9 -8 0 2 2 3 3 -6 -11 -8 2 2 4 4 3 4 5 6 6 2 1 -0 0 -1 -3 -3 -3 -2 -3 -3 -3 -3 -4 -4 -4
-0 3 0 2 3 2 1 -1 1 -3 -8 -9 -9 -1 1 1 1 1 2 1 -3 -5 4 2 4 3 3 4 4 5 5 2 1 -0 -2 -2 -3 -3 -2 -3 -4 -3 -4 -0 -3 -3 -2
-0 2 1 1 3 2 3 1 -3 -6 -10 -9 -7 1 3 4 3 2 3 3 1 3 4 4 3 3 4 3 3 2 2 1 -0 -1 -2 -2 -2 -3 -3 -1 -1 -2 5 -1 -1 -4 -3
-15 -2 0 0 2 2 2 3 0 -4 -10 -9 -3 3 3 4 4 3 3 3 3 3 3 3 2 2 3 3 3 2 2 1 0 -1 -2 -2 -3 -1 -2 1 3 1 0 -2 -4 -1 -2
-18 -16 -8 0 1 1 -4 2 2 -2 -5 -10 -1 2 3 2 1 0 2 2 3 3 2 3 3 3 3 2 2 0 -1 -1 -1 -2 -1 -2 0 4 0 -3 -4 -5 -5 -5 -5 -2 -1
-5 -18 -17 -14 -1 2 -4 -4 -2 -2 -4 -9 -6 1 2 -0 -0 1 1 2 3 3 4 3 3 3 3 2 1 1 0 -1 -1 1 -2 -0 1 -2 -3 -3 -4 -4 -3 -2 0 -2 -1
0 -13 -16 -16 -12 -1 -1 -6 -3 -2 -4 -10 -10 -1 -1 -0 1 -0 0 1 2 2 1 1 2 3 3 2 1 1 0 -1 -1 -1 -1 1 0 -3 -3 -2 -2 -2 -2 -1 1 1 0
1 -3 -18 -12 -11 -6 -3 -6 -5 -2 -3 -9 -12 -4 -1 -0 -0 0 -1 -1 -2 1 3 2 1 1 1 2 -0 1 2 1 -1 -0 -0 -0 -3 -2 -2 -2 -2 0 -1 -0 1 3 4
-0 0 -14 -14 -7 -7 -5 -6 -7 -4 -2 -2 -8 -5 -1 -2 -0 2 -1 -2 -4 3 3 2 1 1 1 0 1 1 0 0 1 -0 1 1 0 0 1 1 -1 2 0 1 2 2 4
-4 0 -5 -14 -6 -5 -5 -5 -8 -7 -3 -2 -2 -6 -4 -2 -1 -1 -1 -2 2 5 4 2 1 1 -0 -1 -0 0 0 0 0 0 -0 -0 -2 -1 0 -1 -0 -0 2 2 1 3 4
-5 -1 -2 -14 -5 -5 -5 -6 -9 -8 -6 -3 -1 -2 -4 -3 -2 -2 -3 2 5 4 0 1 1 -1 -1 0 0 -0 0 1 3 4 3 2 2 0 -1 1 1 2 3 4 6 6 5
-5 -2 0 -12 -5 -7 -6 -8 -8 -8 -4 -3 -2 -2 -2 -3 -3 -3 1 5 3 1 1 -0 0 0 2 1 1 1 1 3 1 1 3 5 6 2 1 2 4 4 5 5 6 8 6
1 -3 0 -7 -9 -5 -9 -8 -8 -8 -3 -3 -3 -2 -1 -2 -0 2 3 4 3 1 -0 1 2 1 2 1 2 1 2 3 1 1 3 4 4 1 1 1 2 6 5 5 6 5 7
4 -1 -1 -1 -12 -6 -7 -9 -7 -8 -6 -4 -5 1 -2 -1 2 2 4 4 3 0 1 1 3 1 1 1 2 2 2 1 2 1 1 2 4 1 3 3 2 4 4 7 7 7 7
5 2 -0 0 -7 -9 -7 -8 -8 -7 -7 -7 -6 2 -3 -2 2 2 6 3 1 1 1 2 1 0 0 1 1 1 2 2 2 3 1 2 3 3 3 5 5 5 6 5 6 6 7
6 3 2 -0 -2 -11 -6 -7 -7 -8 -8 -6 -0 4 -4 1 5 1 4 1 0 1 1 1 1 -0 0 1 1 1 2 1 1 2 2 2 3 4 3 1 0 2 4 5 7 7 5
6 5 3 1 0 -7 -8 -6 -7 -7 -8 -6 1 -2 -4 2 7 5 1 1 1 1 1 1 1 0 -1 0 2 0 0 1 1 1 3 2 4 4 4 1 1 3 3 4 3 4 5
5 5 4 3 1 -1 -9 -6 -6 -7 -8 -7 0 3 2 -0 0 1 2 2 2 1 1 0 -0 -1 -0 -1 -2 -1 -2 -0 0 0 -0 1 3 3 4 1 1 2 2 4 4 6 4
4 5 5 4 2 0 -5 -7 -6 -7 -8 -4 -1 2 0 6 2 0 0 1 1 1 1 -0 0 -0 -1 -1 -3 -3 -2 -2 -1 -0 -0 1 3 2 2 1 1 0 -0 2 4 4 5
4 4 4 5 3 1 -1 -7 -6 -6 -8 -6 1 1 -1 0 -0 -0 1 1 1 0 0 -0 0 -0 -1 0 -0 0 -0 -1 -2 -0 -1 -1 2 1 1 -1 -1 -0 -1 -2 -1 2 3
4 5 5 5 4 2 1 -4 -8 -6 -5 -7 -6 -3 0 1 -0 0 0 -1 -0 0 0 -0 0 0 -0 -1 0 -0 -1 -1 -1 -0 -1 -1 1 1 3 1 0 -0 -3 -3 -1 -1 -2
5 5 5 5 5 4 1 -1 -7 -6 -5 -5 -6 -5 -1 1 -1 -1 -2 -2 -1 -0 1 -0 0 0 1 -0 -1 -1 0 -0 -0 -1 -1 1 1 1 3 1 1 -3 -3 -2 -1 -2 -4
5 5 5 5 5 5 2 1 -4 -7 -6 -4 -4 -5 -1 -0 -4 -4 -2 -2 -2 -1 -0 -1 -1 -1 0 -1 -0 -2 -1 -1 -1 -0 -0 0 1 2 2 1 -2 -4 -6 -3 -1 -2 -4
5 5 5 5 5 5 4 1 1 -6 -6 -5 -3 -3 -4 -1 -3 -5 -2 -3 -1 -1 -2 -1 -1 -1 -1 0 -1 -0 -2 -5 -3 -1 -4 -1 0 1 1 2 -1 -6 -4 -4 -4 -1 -4
5 5 5 5 5 5 5 4 2 -0 -6 -5 -4 -3 -2 -0 -2 -4 -3 -2 -2 -1 -1 -2 -1 1 0 1 1 -1 -1 -4 -3 -3 0 1 1 3 2 2 -0 -4 -4 -4 -1 -3 -4
4 5 5 5 5 5 4 5 3 2 -1 -5 -4 -5 -3 -1 -3 -3 -4 -4 -3 -1 -1 -1 -1 0 1 2 -0 -1 -2 -3 -2 -4 -3 -1 1 1 0 1 0 -4 -4 -3 -4 -4 -4
4 4 5 5 5 5 4 4 5 4 3 -2 -4 -4 -5 -3 -4 -5 -4 -4 -4 -1 -1 -1 -1 -0 0 3 1 -1 0 -1 -2 -3 -5 -2 -5 -5 -3 -2 -5 -5 -5 -5 -4 -4 -4

GFSGBSN_850_dewp_123.txt.gz
Dewpoint
4 4 3 3 3 2 3 3 1 1 1 2 2 3 2 -0 -5 -6 -7 -7 -1 -0 0 3 4 5 5 5 5 6 6 0 0 -1 -2 -4 -4 -4 -3 -3 -4 -4 -4 -3 -3 -3 -4
4 4 3 2 3 3 -1 0 0 0 1 1 2 2 2 2 2 -1 -9 -10 -2 1 3 5 6 3 4 4 5 6 1 -1 -1 -1 -2 -3 -3 -3 -3 -2 -2 -2 -2 -3 -4 -4 -5
4 4 3 2 3 3 2 -8 -8 -8 -11 -0 1 4 3 3 3 1 -10 -11 0 2 4 4 5 4 3 4 5 4 1 -0 -1 -2 -2 -3 -3 -3 -3 -2 -3 -5 -4 -3 -4 -4 -3
-0 4 3 2 0 3 3 0 -12 -14 -10 -0 2 2 3 3 3 2 0 -0 3 3 3 3 3 2 3 4 5 4 1 0 -1 -3 -3 -3 -4 -4 -3 -4 -4 -3 -4 -1 -3 -4 -2
-14 -2 1 0 -2 1 2 0 -8 -13 -8 -1 1 2 3 2 3 2 2 4 2 4 3 2 1 2 3 3 3 4 1 -1 -2 -3 -4 -5 -7 -4 -3 -1 -0 -2 3 -2 -2 -3 -2
-17 -12 -8 -5 0 -3 -0 -2 -7 -14 -11 -0 1 1 1 1 1 3 3 3 2 2 2 2 2 2 3 3 2 3 1 1 -2 -3 -4 -3 -3 -1 -1 1 1 0 -0 -3 -2 -1 -2
-5 -15 -13 -8 -8 -3 -4 -1 -3 -11 -14 -1 1 1 -0 0 1 1 1 2 2 3 2 3 2 2 2 2 1 0 -1 -1 -1 -1 -1 -2 0 1 -2 -3 -5 -6 -5 -5 -4 -1 -2
-3 -13 -11 -11 -6 -8 -7 -3 -2 -6 -15 -5 -2 0 0 0 -0 -1 -1 2 2 3 3 2 2 2 2 2 1 1 0 -1 -1 -0 -3 0 0 -2 -2 -3 -3 -4 -3 -1 -0 -2 -0
1 -12 -12 -7 -8 -6 -9 -6 -3 -2 -7 -12 -3 -2 0 0 -1 -3 -3 -1 1 0 1 1 1 2 1 -0 1 1 0 -1 -1 -0 0 1 -0 -3 -2 -2 -1 -2 -1 0 1 1 1
-0 -7 -11 -5 -4 -6 -7 -9 -4 -2 -2 -6 -7 -3 -1 0 -0 1 -2 -2 -3 1 0 2 1 1 1 1 0 -0 1 1 -1 1 -0 -1 -3 -2 -2 -2 -2 1 -0 1 2 2 1
-1 -1 -12 -5 -5 -5 -6 -9 -8 -3 -2 -2 -6 -5 -3 -3 -1 -0 -1 -2 -3 3 2 1 1 1 1 0 0 -1 -1 -1 1 1 -0 1 -1 -1 1 1 -1 2 1 1 2 2 1
-2 0 -11 -6 -8 -6 -6 -8 -8 -7 -3 -2 -3 -6 -5 -4 -3 -2 -1 -1 3 -2 2 2 0 0 0 -0 0 -0 0 0 1 1 -0 -1 -2 -1 1 -1 0 0 2 2 2 3 5
-1 0 -4 -10 -6 -9 -9 -7 -8 -4 -3 -3 -2 -3 -5 -4 -4 -3 -2 2 -0 2 -1 1 2 0 -1 1 0 0 1 2 2 -0 3 2 2 0 -1 2 1 1 2 2 4 6 3
1 -0 0 -10 -7 -7 -9 -7 -8 -4 -3 -3 -3 -3 -3 -3 -3 -1 2 -1 1 1 1 -0 0 1 2 1 1 2 2 3 1 1 3 0 1 3 1 2 3 1 3 4 3 6 4
4 1 1 -3 -9 -6 -8 -9 -7 -8 -4 -5 -3 -3 -2 1 1 1 -1 1 -0 1 -0 1 2 2 2 1 2 1 3 2 1 1 3 5 4 2 1 1 2 5 4 4 3 3 5
5 3 2 1 -7 -8 -7 -8 -8 -7 -7 -6 -5 -1 -3 1 2 1 1 2 2 1 1 1 2 1 2 1 2 2 3 1 2 1 1 2 4 2 3 2 2 4 4 4 6 6 6
5 4 3 2 -0 -9 -7 -6 -8 -9 -7 -6 -3 -1 -4 1 2 -0 2 1 2 1 1 2 2 0 1 1 -0 0 2 2 2 2 1 1 2 3 4 5 5 5 4 4 5 5 5
5 4 3 3 1 -2 -9 -7 -8 -10 -8 -6 -1 -2 -4 1 1 1 1 1 1 1 1 1 1 1 1 0 2 1 2 2 2 1 3 2 3 3 3 1 2 3 4 4 5 6 5
4 4 4 4 2 1 -4 -8 -7 -9 -9 -5 -2 -1 -2 2 2 1 1 1 1 1 1 1 1 -0 -1 -0 2 -0 0 1 1 2 3 2 3 2 2 1 1 3 4 3 3 3 5
2 4 4 4 3 1 -0 -7 -7 -8 -10 -6 -0 -1 0 -1 0 1 1 1 2 0 1 0 0 -1 0 -0 -2 -1 -2 1 1 0 0 1 2 2 1 1 1 3 3 4 3 4 3
1 2 4 4 4 2 1 -2 -8 -8 -9 -4 -2 -0 0 1 1 -0 0 1 1 2 1 0 1 -0 -1 -0 -1 -2 -2 -2 1 -0 0 2 3 2 2 1 1 2 2 3 4 3 3
1 3 3 4 4 3 2 1 -4 -8 -8 -9 -1 2 0 -0 -1 -1 0 1 1 0 -0 1 0 -0 -1 0 -0 0 -0 -1 -1 -0 -1 0 1 1 0 -0 -0 1 0 0 1 3 3
1 3 4 4 4 4 3 1 -1 -6 -8 -7 -6 -4 -1 2 -0 -0 -0 -1 -0 -0 -0 -0 0 0 0 -0 -0 -0 -1 -1 -1 -0 -0 -0 1 0 1 -0 0 -1 -1 -2 -1 -2 1
4 4 4 4 4 4 4 2 1 -3 -6 -5 -6 -6 -2 -0 -0 -0 -2 -2 -1 -0 0 -0 0 0 -0 0 -2 -3 -0 0 0 -0 -1 1 1 0 1 0 -3 -7 -4 -4 -4 -3 -3
4 5 5 5 4 5 5 3 2 0 -5 -5 -5 -5 -4 -3 -3 -5 -3 -2 -2 -2 -1 -1 -2 -1 -0 -1 0 -2 -2 -0 -0 0 -0 -0 1 2 2 1 -2 -3 -5 -3 -1 -4 -4
3 5 5 5 5 5 5 5 3 2 0 -5 -5 -4 -3 -2 -4 -4 -4 -3 -2 -1 -2 -1 -1 -1 -1 0 -0 0 -2 -5 -5 -1 -3 0 1 1 2 2 1 -8 -5 -4 -5 -4 -4
4 4 5 5 5 5 5 4 5 3 2 0 -3 -4 -4 -1 -4 -3 -5 -3 -2 -1 -1 -2 -1 -0 0 1 1 0 -1 -5 -4 -3 0 1 2 3 3 3 1 -4 -4 -4 -7 -11 -4
4 4 5 4 5 4 5 4 4 4 4 2 -0 -3 -3 -3 -4 -4 -3 -4 -2 -1 -0 -1 -2 -1 1 1 0 -1 -2 -3 -2 -4 -0 0 1 2 1 2 2 -4 -4 -5 -7 -4 -4
4 4 4 5 4 5 4 4 4 4 4 4 3 0 -3 -2 -2 -2 -3 -3 -3 -3 -2 -2 -2 -0 -1 -0 1 -0 -0 -1 -2 -1 -6 -3 -3 -3 -1 -1 -5 -5 -7 -7 -5 -5 -4

GFSGBSN_850_dewp_126.txt.gz
Dewpoint
1 2 3 4 4 4 2 -11 -12 -2 3 4 4 3 3 4 1 -9 -0 1 3 4 5 3 4 4 5 4 5 6 2 1 -0 -2 -2 -4 -4 -4 -3 -4 -5 -3 -3 -3 -3 -5 -5
3 1 -2 2 4 4 4 -7 -11 -2 1 3 3 3 4 2 1 -8 1 2 3 5 5 5 4 4 4 4 5 1 0 -0 -1 -2 -3 -4 -4 -4 -3 -2 -3 -2 -3 -3 -4 -5 -4
2 3 -1 -3 1 2 1 -5 -10 -3 0 2 2 1 2 3 1 2 2 4 4 5 5 4 4 3 3 4 3 0 -1 -1 -2 -3 -4 -4 -3 -3 -3 -3 -3 -5 -4 -4 -3 -4 -3
-3 -1 -1 -5 -4 -0 -4 -12 -12 -4 -1 1 1 1 2 2 3 3 2 4 3 4 4 4 3 2 3 3 1 -0 -1 -2 -2 -3 -4 -4 -4 -4 -4 -4 -5 -4 -4 -3 -3 -4 -3
-7 -7 -4 -8 -4 -3 -4 -11 -14 -8 -3 0 1 2 2 2 2 2 3 3 2 2 2 2 2 3 3 4 1 1 -1 -3 -4 -4 -4 -5 -6 -4 -3 -1 -1 -3 -0 -2 -2 -3 -2
-5 -10 -9 -6 -9 -5 -4 -8 -15 -11 -5 -1 0 2 1 2 1 1 1 1 1 1 1 0 2 3 3 3 2 0 -0 -3 -4 -5 -6 -4 -3 -2 -2 -0 -1 -2 -0 -3 -2 -2 -3
-7 -7 -8 -8 -8 -9 -4 -4 -9 -14 -7 -3 -1 0 -0 -0 -0 -0 0 -0 1 2 1 2 2 2 1 1 1 -1 -2 -2 -2 -2 -1 -1 -1 -1 -3 -4 -5 -6 -4 -4 -2 -2 -1
-0 -5 -5 -5 -8 -9 -7 -4 -3 -8 -10 -5 -1 -0 -2 -3 -3 -2 -1 1 2 2 2 1 1 0 1 1 0 -1 -1 -1 -2 -1 -2 -1 0 -2 -3 -3 -3 -4 -2 -0 -0 -1 0
2 -4 -5 -5 -6 -8 -10 -5 -3 -3 -7 -7 -3 -1 -2 -2 -2 -3 -3 -0 1 -0 1 1 0 1 1 -1 0 0 -1 -1 -1 0 0 1 -1 -3 -2 -2 -1 -0 -1 0 1 1 -0
1 -10 -6 -8 -6 -8 -9 -9 -4 -3 -2 -6 -6 -2 -1 -2 -2 -3 -2 -2 -1 -0 -1 -0 0 0 0 -1 -2 -1 -0 -0 -1 0 -1 -1 -3 -2 -2 -2 -1 2 1 1 2 1 -1
1 -6 -9 -6 -10 -9 -8 -8 -7 -4 -3 -2 -5 -5 -3 -3 -3 -2 -2 -1 -0 0 2 -1 0 -0 0 -0 -1 -0 -1 -1 2 1 -2 1 -2 1 2 1 -0 2 0 1 2 2 -1
1 0 -9 -7 -8 -9 -8 -8 -4 -3 -3 -3 -3 -5 -5 -4 -5 -4 -3 1 0 -1 1 0 -0 -1 -0 -0 0 -0 0 0 1 0 -1 -1 -2 -1 0 -1 0 0 1 2 2 2 -0
1 1 -3 -9 -7 -9 -9 -8 -5 -4 -3 -4 -3 -3 -3 -4 -4 -3 0 2 -0 -0 -2 -1 1 1 1 1 1 0 1 2 2 -0 0 0 2 0 -1 1 1 1 0 -0 1 3 2
3 2 1 -6 -8 -7 -8 -9 -8 -6 -5 -3 -2 -1 0 1 1 2 1 -2 1 1 1 -1 0 1 2 1 1 1 1 1 0 0 0 -1 1 2 0 2 1 3 2 1 2 3 3
5 3 2 0 -7 -7 -6 -8 -9 -8 -7 -6 -3 -3 -1 2 2 1 -2 0 -1 0 -0 1 2 3 2 1 1 1 2 2 1 1 1 2 4 2 1 2 2 4 3 2 4 3 6
4 3 3 1 -0 -7 -7 -7 -9 -10 -8 -7 -6 -2 -3 1 -1 -1 1 2 2 1 1 1 2 -0 2 1 1 2 3 1 2 1 1 2 3 2 2 2 2 3 3 4 4 4 4
3 3 3 2 1 -1 -7 -8 -8 -10 -9 -7 -4 -3 -4 1 0 -2 1 1 1 1 1 2 2 1 1 1 0 1 2 2 2 2 1 1 2 2 3 4 4 4 4 4 4 5 5
3 3 3 3 2 1 -2 -8 -8 -10 -9 -6 -3 -2 -1 1 -0 0 1 1 1 1 1 1 1 1 1 0 2 1 2 2 2 1 3 1 2 3 3 1 1 3 3 3 3 2 4
0 2 3 3 3 2 1 -3 -8 -9 -10 -7 -4 -3 -2 -0 0 -0 1 1 1 1 1 1 1 -0 -1 0 2 -0 0 1 2 2 2 2 2 1 1 1 2 4 3 3 2 3 4
-2 0 3 3 3 2 2 1 -4 -9 -10 -6 -2 -1 -1 -0 1 -0 1 1 1 0 1 0 0 -1 -0 0 -1 -1 -2 1 1 1 1 1 2 1 -5 -4 1 3 3 3 2 4 3
-2 -1 1 3 3 3 2 2 1 -5 -9 -8 -4 -2 -0 1 1 -0 0 0 1 2 1 0 0 0 -1 -0 -1 -2 -2 -1 1 -0 0 1 3 1 2 2 2 2 2 3 4 3 3
-1 0 2 3 3 3 3 2 2 -1 -6 -9 -5 -1 1 -0 -1 -1 -0 0 1 -0 0 1 1 -0 -1 0 -1 -1 -1 -1 -1 0 -0 1 1 1 0 -0 0 1 0 0 1 2 3
-3 -0 1 3 4 3 3 3 2 1 -3 -7 -7 -5 -3 1 -1 -1 -1 -1 -0 -0 -1 -0 -0 -0 -0 -1 -1 -1 -1 -1 -2 0 0 -0 1 0 1 -1 -0 -1 -3 -3 -1 -0 2
-1 -2 0 1 3 3 4 4 2 2 -1 -5 -6 -6 -4 -3 -0 -1 -2 -2 -2 -1 -1 -0 0 0 -1 -0 -1 -2 -1 -0 -0 -0 -1 1 -0 -0 1 -0 -4 -8 -5 -5 -3 -4 -2
1 3 0 3 3 3 4 4 4 3 1 -2 -4 -5 -5 -5 -3 -5 -4 -2 -2 -2 -1 -1 -1 -1 -1 -1 -0 -3 -5 -1 -0 0 0 -1 1 2 1 0 -2 -4 -5 -4 -3 -7 -5
2 4 4 5 4 4 4 4 4 4 3 1 -1 -3 -4 -3 -5 -4 -4 -3 -2 -2 -2 -1 -1 -1 -1 -1 -0 -1 -5 -6 -5 -1 -2 -0 -0 1 2 2 -0 -10 -7 -4 -7 -5 -6
3 3 4 4 4 4 4 5 4 4 4 3 1 -0 -3 -3 -4 -3 -4 -5 -2 -2 -1 -2 -1 -0 -0 0 1 0 -1 -5 -3 -3 0 1 2 3 2 2 1 -3 -5 -5 -5 -9 -5
4 4 3 4 4 4 4 4 4 4 4 4 3 1 -0 -2 -0 -1 -3 -4 -2 -1 -2 -2 -2 -1 0 0 0 -0 -2 -3 -2 -4 -1 0 1 2 1 2 2 -4 -4 -5 -7 -5 -5
5 5 5 4 4 5 4 4 4 4 4 4 4 3 1 -0 0 0 -0 -1 -3 -4 -3 -2 -2 -1 -1 -1 -1 -1 -0 -1 -2 -1 -5 -2 -3 -1 -0 -0 -4 -5 -6 -7 -6 -6 -6

GFSGBSN_850_dewp_129.txt.gz
Dewpoint
4 4 4 4 3 3 3 -6 -1 1 1 3 3 3 1 0 2 3 4 5 5 4 5 4 6 6 5 4 4 6 5 1 -2 -3 -3 -4 -3 -5 -4 -4 -4 -3 -2 -3 -4 -5 -5
1 2 4 4 3 3 -0 -6 -1 0 1 1 2 2 3 3 4 4 4 5 5 5 4 5 5 5 4 3 3 1 1 -1 -2 -3 -3 -4 -5 -5 -4 -3 -3 -2 -3 -3 -5 -5 -4
-3 2 -4 3 2 2 -3 -10 -3 -0 0 1 1 2 2 3 4 4 5 5 5 5 4 4 4 3 2 3 0 -1 -1 -2 -3 -4 -4 -3 -4 -4 -4 -3 -4 -5 -4 -4 -3 -4 -3
-5 -5 -2 -7 0 -0 -7 -13 -6 -3 -0 1 1 1 2 3 3 3 4 5 4 4 4 4 3 2 3 1 -1 -2 -2 -3 -3 -4 -4 -4 -4 -5 -4 -5 -4 -5 -5 -6 -4 -5 -3
-3 -7 -8 -8 -7 -2 -6 -14 -8 -4 -1 0 1 1 1 1 2 2 2 2 3 3 3 4 3 3 4 1 -1 -2 -3 -3 -4 -4 -4 -5 -5 -4 -4 -3 -4 -3 -3 -4 -2 -4 -2
1 -5 -6 -8 -9 -6 -4 -8 -11 -5 -1 -1 -1 -0 -0 0 0 2 2 1 1 1 0 1 3 3 3 1 0 -3 -4 -4 -4 -5 -6 -6 -4 -2 -3 -2 -4 -3 -0 -3 -3 -3 -3
-0 -6 -6 -7 -9 -9 -5 -3 -8 -7 -2 -2 -3 -3 -4 -3 -0 -1 -0 -1 0 1 1 2 2 2 1 -0 -1 -3 -3 -5 -6 -3 -1 -3 -2 -2 -3 -4 -6 -4 -3 -4 -2 -2 -1
-6 -5 -8 -7 -8 -10 -8 -4 -3 -7 -5 -1 -2 -3 -3 -4 -4 -2 -1 -0 0 0 1 -0 -0 -0 0 -0 -1 -1 -3 -3 -2 -0 -2 -1 -0 -2 -3 -3 -4 -4 -2 -1 -1 -1 0
-6 -8 -7 -9 -8 -9 -9 -8 -4 -3 -6 -6 -2 -2 -3 -4 -3 -4 -3 -0 1 -1 -0 -1 -1 -1 -0 -1 -0 -1 -2 -2 -1 -0 -0 0 -1 -3 -3 -2 0 1 -1 0 1 1 -1
0 -9 -7 -9 -9 -8 -7 -6 -5 -3 -3 -5 -6 -3 -2 -2 -4 -4 -2 -2 -0 -2 -1 -1 -0 -0 -1 -1 -2 -1 -1 -1 -1 -1 -2 -1 -3 -2 -1 -1 -1 1 1 1 2 1 -1
1 -3 -9 -7 -9 -8 -8 -5 -4 -4 -4 -3 -5 -6 -5 -4 -3 -2 -3 0 0 -1 1 -3 -1 -1 -0 -2 -2 -0 -1 -1 1 1 -4 -2 -1 1 2 1 0 2 0 1 2 2 -1
2 1 -5 -8 -7 -8 -8 -7 -4 -4 -4 -4 -4 -4 -4 -5 -4 -3 -2 1 0 -2 -1 -1 -1 0 -0 -0 0 -0 -0 -0 0 -0 -0 -0 -2 -1 0 -1 -0 -0 1 0 1 1 -2
2 2 0 -6 -8 -6 -8 -8 -8 -5 -4 -2 -2 -0 1 1 0 1 1 1 -2 -1 -3 -1 1 1 0 1 1 0 1 1 2 -1 -1 0 2 0 -1 1 0 -0 -0 -1 -2 1 -1
3 3 1 -1 -5 -7 -7 -8 -9 -8 -7 -6 -3 -2 0 2 2 1 -2 -2 0 0 1 -2 0 1 1 1 1 1 0 1 0 -0 -1 -1 0 2 -0 1 2 4 1 -1 -1 1 2
3 3 2 1 -1 -6 -7 -8 -10 -10 -8 -8 -6 -3 0 2 0 -1 -3 0 -1 -0 -0 1 1 2 1 0 0 2 2 1 1 1 1 2 3 1 0 1 1 4 2 1 3 3 5
2 2 3 2 1 -0 -5 -8 -9 -11 -8 -7 -6 -4 -1 1 -1 -2 1 1 1 1 1 1 2 -0 2 0 1 2 3 1 2 1 0 2 3 2 2 2 2 3 2 4 4 4 4
0 1 3 2 1 1 -0 -5 -9 -11 -10 -6 -5 -5 -2 -2 -3 -3 1 1 1 1 1 2 1 1 1 1 0 1 2 2 1 2 1 1 1 1 3 3 4 4 4 4 3 3 4
-4 -0 2 3 2 1 1 -0 -5 -9 -11 -8 -6 -3 -2 -0 -1 -0 0 0 1 0 1 1 1 0 1 0 1 1 2 1 2 1 3 1 1 2 2 1 1 2 3 3 2 2 3
-7 -2 0 2 2 2 1 1 -1 -6 -10 -8 -5 -4 -3 -3 -1 -1 0 0 1 1 1 1 1 -0 -1 0 2 -0 0 1 2 1 2 1 2 0 -0 0 2 4 3 2 1 2 4
-7 -4 -3 0 1 1 2 2 1 -2 -9 -8 -4 -2 -3 -1 -0 -0 1 1 0 0 1 0 0 -1 -0 0 -1 -1 -2 1 2 2 1 1 1 0 -7 -8 1 4 3 2 2 4 2
-10 -7 -6 -4 -0 0 1 2 2 0 -5 -7 -6 -2 -1 -1 -0 -1 -0 -0 1 1 1 0 0 0 -1 -0 -1 -1 -3 -2 1 1 1 -0 2 1 1 1 1 1 1 3 4 3 3
-11 -7 -6 -7 -5 -1 -0 1 2 1 -2 -6 -7 -3 0 -1 -1 -1 -1 -0 0 -0 1 1 1 -0 -1 -0 -2 -2 -1 -1 -2 0 1 1 1 0 0 -0 -0 1 0 1 2 3 3
-8 -3 -1 -1 -4 -1 0 2 2 2 1 -4 -5 -5 -4 1 -1 -2 -2 -1 -0 -1 -1 -1 -0 -0 -0 -1 -2 -2 -1 -2 -3 0 0 -0 1 0 1 -1 -1 -2 -3 -2 -1 -0 0
1 3 4 3 2 0 2 3 3 3 2 -0 -3 -5 -6 -5 -1 -1 -2 -2 -2 -0 -1 -0 0 -1 -2 -1 -1 -2 -1 -0 -0 -1 -1 -0 -1 -0 1 -1 -6 -8 -6 -5 -3 -3 -1
3 3 4 4 4 4 3 4 3 4 3 2 -0 -2 -5 -4 -5 -5 -5 -3 -3 -3 -1 -1 -1 -0 -0 -1 -1 -4 -6 -2 0 -0 -0 -1 0 1 1 -0 -2 -6 -6 -3 -3 -5 -5
4 4 4 4 4 4 4 4 4 4 4 3 1 1 -2 -3 -3 -5 -4 -4 -3 -2 -3 -2 -1 -1 -0 -1 -1 -2 -6 -8 -5 -1 -1 -0 -1 1 1 2 -1 -10 -7 -4 -7 -6 -8
4 4 4 4 4 4 4 4 4 4 4 4 3 2 0 -2 -2 -4 -3 -6 -3 -2 -2 -2 -1 -0 -1 -1 0 0 -1 -5 -4 -2 1 2 2 3 2 3 1 -3 -5 -5 -6 -9 -9
5 5 5 5 4 4 4 4 4 4 4 4 4 4 2 0 2 1 -1 -3 -3 -1 -3 -4 -2 -1 -0 0 -0 -1 -1 -3 -2 -5 -0 1 2 2 1 2 2 -4 -4 -4 -7 -8 -8
4 4 5 5 5 5 5 4 4 4 4 4 4 4 4 2 3 3 2 1 -1 -4 -3 -3 -2 -1 -1 -2 -1 -1 0 -1 -2 -1 -4 -2 -2 0 -0 -0 -4 -4 -5 -6 -7 -6 -6

GFSGBSN_850_dewp_132.txt.gz
Dewpoint
-5 -1 2 4 4 4 -2 -2 -0 0 1 2 2 3 3 4 5 4 5 4 5 6 4 3 5 5 5 4 4 6 5 2 -2 -3 -2 -0 -2 -5 -4 -5 -4 -2 -2 -3 -4 -5 -5
-4 -5 -0 3 4 3 -4 -5 -2 -0 0 1 2 3 3 3 5 4 5 4 5 5 6 5 5 5 3 3 2 1 1 -1 -3 -3 -2 -2 -5 -5 -4 -3 -3 -3 -3 -4 -5 -5 -5
1 -5 -4 1 3 3 -9 -7 -2 -1 0 1 1 2 3 3 4 4 4 5 4 5 5 5 4 3 2 2 -1 -2 -1 -2 -3 -4 -4 -6 -6 -6 -4 -3 -4 -5 -4 -4 -4 -4 -4
2 -0 -2 -7 -1 -1 -7 -7 -2 -2 -1 0 1 1 1 2 2 3 4 4 4 4 3 3 4 2 2 -0 -2 -3 -3 -3 -3 -4 -5 -4 -5 -6 -5 -5 -5 -5 -6 -6 -5 -5 -3
3 -0 0 -6 -7 -4 -6 -10 -3 -3 -3 -2 -3 -2 0 1 1 1 2 3 3 4 3 2 2 1 3 -1 -2 -3 -3 -4 -4 -4 -5 -5 -6 -4 -5 -4 -4 -4 -3 -6 -3 -4 -3
-1 -7 -4 -5 -7 -7 -3 -8 -6 -3 -5 -4 -4 -4 -3 -0 0 0 0 1 2 1 3 3 3 2 3 0 -3 -3 -3 -4 -5 -6 -7 -7 -5 -3 -4 -4 -3 -4 -2 -3 -4 -2 -3
-8 -8 -9 -8 -7 -9 -6 -3 -7 -4 -3 -5 -4 -5 -4 -1 -1 -1 -1 -1 -0 -0 0 2 1 2 1 -1 -2 -4 -5 -5 -5 -5 -2 -4 -2 -2 -3 -5 -5 -3 -3 -4 -1 -1 -0
-8 -7 -9 -9 -8 -8 -7 -6 -3 -5 -5 -2 -5 -5 -5 -3 -3 -1 -3 0 2 1 -0 -1 -1 -1 -1 -2 -2 -3 -5 -4 -3 -1 -3 -2 -1 -3 -3 -3 -4 -4 -3 -1 -2 -1 0
-3 -9 -7 -9 -8 -7 -5 -5 -4 -3 -4 -7 -5 -5 -5 -5 -5 -4 -2 -2 -2 -2 -1 -2 -1 -1 -1 -2 -0 -1 -2 -3 -2 -1 -1 -1 -2 -3 -3 -2 -0 1 -1 0 1 1 -1
1 -5 -8 -7 -8 -8 -5 -4 -4 -4 -3 -3 -6 -7 -7 -6 -5 -4 -2 -1 -1 -3 -1 -2 -1 -1 -2 -2 -2 -0 -1 -2 -1 -1 -2 -2 -3 -2 -1 0 -1 0 1 1 2 1 -2
1 0 -6 -8 -6 -8 -8 -7 -4 -3 -3 -3 -4 -5 -5 -6 -5 -4 -2 0 -0 -3 1 -3 -1 -1 -0 -2 -1 -1 -1 -3 0 0 -5 -2 0 1 2 1 0 1 0 1 2 2 -1
2 1 -0 -5 -8 -7 -8 -9 -8 -5 -3 -2 -1 0 0 -2 -2 -1 -0 -0 -4 -2 -1 -1 -1 0 -0 -0 -0 -1 -1 -1 -0 -0 -0 -0 -1 -1 -0 -0 -0 -0 0 -1 0 -0 -3
1 2 1 -0 -5 -8 -7 -8 -10 -8 -6 -4 -2 -1 1 2 1 0 -1 -0 -2 -1 -4 0 1 1 0 1 0 0 0 1 1 -2 -1 -0 1 0 -1 1 0 -1 -1 -3 -3 -0 -3
-0 1 1 1 0 -4 -8 -8 -10 -10 -8 -8 -5 -2 1 2 1 -0 -3 -2 0 -1 1 -2 0 1 1 0 1 1 0 1 0 -1 -1 -1 -1 2 -0 1 2 3 -0 -2 -4 1 1
-2 -0 1 1 1 0 -2 -8 -9 -11 -9 -8 -6 -3 0 1 -1 -1 -3 0 -2 -0 -0 1 1 0 0 -0 0 2 1 1 1 0 -1 2 3 1 -0 1 0 4 2 -0 2 2 4
-6 -2 -1 0 0 1 1 -1 -8 -11 -10 -7 -5 -4 -0 -1 -2 -2 0 1 1 -0 1 0 1 -0 1 0 0 2 2 1 2 1 -0 1 4 2 1 2 2 2 2 3 4 4 3
-12 -6 -2 -0 -0 -0 1 1 -2 -9 -11 -8 -6 -5 -2 -1 -3 -3 1 1 1 1 1 1 1 1 1 1 1 1 2 1 1 2 0 1 1 2 3 3 3 4 4 3 1 2 3
-12 -11 -5 -2 -1 -1 -0 1 0 -4 -10 -9 -7 -3 -3 -3 -2 -1 0 0 0 0 1 1 1 0 1 0 1 1 1 1 1 1 2 1 0 2 4 1 1 2 2 2 2 1 3
-12 -12 -10 -5 -3 -1 -1 -0 0 -1 -6 -8 -6 -5 -4 -6 -1 -1 0 0 1 1 1 1 1 -0 -1 -0 1 -0 -1 1 1 1 2 1 1 -1 -2 -0 2 3 2 1 0 1 4
-11 -6 -9 -9 -3 -2 -2 -0 0 -1 -4 -9 -7 -2 -5 -2 -0 -1 0 1 -0 0 0 0 0 -1 -1 0 -1 -1 -2 0 2 1 1 1 1 -1 -7 -10 1 4 3 2 2 4 2
-12 -4 -1 -1 -7 -3 -2 0 1 0 -3 -6 -7 -2 -1 -1 -1 -0 -1 -0 1 1 0 0 -0 -0 -1 -1 -1 -1 -3 -2 1 1 1 -0 1 -0 0 0 -0 0 0 2 3 3 3
-9 -9 -2 1 -0 -7 -2 0 1 1 -2 -3 -7 -5 -1 -1 -1 -1 -2 -0 0 -1 0 0 0 -0 -0 -1 -3 -3 -2 -1 -3 0 0 0 1 0 -0 -1 -1 1 0 0 1 3 3
-2 -5 -2 0 -1 -6 -3 1 2 2 1 -1 -2 -4 -5 -0 -1 -2 -3 -2 -0 -1 -1 -1 -0 -1 -0 -0 -1 -2 -2 -2 -3 0 0 -0 1 -0 1 -1 -1 -2 -3 -1 -1 -0 1
2 2 3 4 3 0 -2 3 3 3 2 1 -0 -3 -5 -5 -1 -2 -2 -1 -2 -0 -1 -1 0 -1 -2 -1 -1 -2 -1 -0 -0 -1 -1 -1 -1 -0 1 -1 -7 -9 -7 -6 -2 -3 -1
4 3 3 3 4 4 3 3 4 4 4 3 2 0 -3 -2 -5 -4 -4 -4 -3 -3 -2 -1 -1 -0 -0 -1 -2 -3 -7 -3 0 -0 -1 -2 -1 0 1 0 -2 -7 -5 -4 -4 -7 -5
4 4 4 4 3 4 4 4 4 4 4 4 3 2 0 -2 -1 -5 -5 -4 -4 -4 -3 -2 -1 -1 -1 -2 -2 -3 -6 -9 -4 -0 -1 -1 -1 -0 1 2 -1 -10 -8 -5 -6 -8 -11
3 3 4 4 4 4 4 4 4 4 4 4 3 4 2 -0 -0 -3 -4 -4 -4 -2 -3 -2 -1 -0 -1 -1 -0 -1 -2 -5 -4 -2 2 2 2 3 2 2 1 -3 -5 -5 -7 -10 -10
4 4 4 4 4 5 4 4 4 4 4 4 4 4 3 2 3 2 1 -2 -2 -2 -3 -3 -3 -1 -1 -0 -1 -2 -1 -3 -3 -5 0 1 2 2 1 2 1 -4 -4 -5 -8 -9 -7
3 3 3 3 4 4 4 4 4 4 4 4 4 4 4 3 3 3 3 3 1 -1 -2 -3 -3 -2 -1 -2 -1 -1 -0 -2 -2 -2 -3 -2 -1 0 -0 -1 -5 -4 -4 -6 -6 -5 -5